GEFSSE_prec_meanprecacc_090.txt.gz
Total_Precipitation_Accumulation
0.00 0.01 0.05 0.03 0.01 0.02 0.02 0.02 0.02 0.02 0.02 0.02 0.02 0.01 0.01 0.01 0.00 0.01 0.01 0.01 0.01 0.01 0.01 0.02 0.04 0.05 0.05 0.04 0.03 0.03 0.02 0.02 0.02 0.02 0.03 0.03 0.04 0.07 0.12 0.14 0.21 0.22 0.16
0.00 0.00 0.03 0.01 0.01 0.02 0.03 0.02 0.01 0.02 0.02 0.02 0.01 0.01 0.01 0.01 0.01 0.01 0.01 0.01 0.01 0.01 0.01 0.01 0.02 0.03 0.03 0.03 0.02 0.01 0.01 0.01 0.02 0.03 0.04 0.04 0.04 0.07 0.10 0.10 0.22 0.20 0.14
0.00 0.00 0.01 0.01 0.01 0.02 0.02 0.01 0.02 0.01 0.02 0.02 0.02 0.03 0.02 0.02 0.01 0.01 0.01 0.01 0.01 0.01 0.01 0.01 0.01 0.01 0.02 0.02 0.01 0.01 0.01 0.01 0.03 0.04 0.08 0.10 0.05 0.08 0.11 0.12 0.13 0.15 0.14
0.00 0.00 0.01 0.01 0.02 0.01 0.02 0.02 0.03 0.02 0.02 0.02 0.06 0.06 0.05 0.02 0.02 0.02 0.01 0.01 0.01 0.01 0.01 0.01 0.01 0.01 0.01 0.01 0.01 0.01 0.01 0.02 0.03 0.05 0.19 0.20 0.10 0.08 0.10 0.11 0.10 0.13 0.14
0.00 0.00 0.01 0.01 0.01 0.01 0.01 0.02 0.04 0.03 0.02 0.04 0.10 0.10 0.08 0.03 0.04 0.04 0.03 0.02 0.02 0.02 0.01 0.01 0.02 0.01 0.01 0.01 0.01 0.01 0.01 0.02 0.03 0.06 0.13 0.20 0.26 0.13 0.09 0.12 0.13 0.15 0.13
0.00 0.00 0.01 0.02 0.01 0.01 0.01 0.02 0.05 0.07 0.05 0.06 0.09 0.10 0.08 0.07 0.09 0.08 0.04 0.03 0.03 0.03 0.03 0.01 0.02 0.01 0.01 0.01 0.01 0.02 0.02 0.02 0.03 0.07 0.10 0.11 0.21 0.20 0.16 0.25 0.32 0.28 0.20
0.00 0.00 0.01 0.02 0.01 0.01 0.01 0.01 0.03 0.05 0.06 0.08 0.09 0.08 0.06 0.05 0.05 0.04 0.03 0.03 0.03 0.03 0.02 0.02 0.02 0.02 0.02 0.02 0.01 0.01 0.02 0.03 0.05 0.08 0.09 0.13 0.21 0.19 0.26 0.46 0.59 0.53 0.42
0.01 0.01 0.02 0.03 0.02 0.02 0.02 0.02 0.02 0.02 0.03 0.03 0.04 0.04 0.03 0.03 0.05 0.06 0.06 0.04 0.04 0.04 0.04 0.04 0.04 0.05 0.04 0.03 0.03 0.03 0.04 0.04 0.03 0.05 0.09 0.14 0.15 0.16 0.39 0.61 0.74 0.74 0.67
0.02 0.02 0.04 0.04 0.04 0.03 0.03 0.02 0.03 0.03 0.04 0.04 0.05 0.05 0.05 0.05 0.06 0.08 0.10 0.10 0.09 0.09 0.09 0.08 0.07 0.06 0.06 0.06 0.05 0.04 0.05 0.06 0.08 0.07 0.09 0.16 0.17 0.32 0.71 0.84 0.83 0.87 0.84
0.05 0.03 0.05 0.06 0.06 0.05 0.04 0.04 0.04 0.04 0.05 0.05 0.06 0.06 0.07 0.06 0.07 0.10 0.12 0.13 0.16 0.19 0.20 0.16 0.13 0.12 0.11 0.09 0.06 0.06 0.07 0.08 0.08 0.08 0.14 0.15 0.20 0.47 0.85 1.00 1.02 1.00 0.95
0.07 0.06 0.05 0.06 0.07 0.06 0.05 0.05 0.07 0.07 0.07 0.07 0.09 0.10 0.10 0.10 0.13 0.21 0.24 0.32 0.33 0.37 0.39 0.34 0.31 0.29 0.27 0.17 0.19 0.23 0.17 0.08 0.08 0.09 0.13 0.14 0.25 0.50 0.82 0.99 1.05 1.07 1.01
0.07 0.06 0.05 0.06 0.07 0.07 0.06 0.10 0.13 0.13 0.16 0.14 0.24 0.30 0.31 0.38 0.33 0.19 0.28 0.52 0.68 0.82 0.80 0.77 0.77 0.64 0.53 0.41 0.71 0.89 0.30 0.20 0.16 0.13 0.18 0.22 0.40 0.66 0.94 0.98 0.98 1.02 0.97
0.10 0.09 0.07 0.09 0.11 0.12 0.14 0.15 0.18 0.26 0.34 0.33 0.35 0.43 0.49 0.51 0.38 0.27 0.32 0.54 0.82 0.97 0.89 1.13 1.24 0.93 0.94 1.00 0.97 0.94 0.53 0.48 0.42 0.36 0.37 0.55 0.74 1.00 1.35 1.24 1.05 0.96 0.91
0.17 0.14 0.14 0.19 0.23 0.30 0.31 0.23 0.23 0.32 0.37 0.39 0.46 0.52 0.65 0.72 0.63 0.58 0.60 0.69 0.86 1.01 1.23 1.33 1.43 1.36 1.34 1.22 1.12 1.06 0.92 0.88 0.72 0.86 0.90 0.90 0.95 1.11 1.50 1.49 1.19 1.03 0.90
0.41 0.35 0.36 0.43 0.41 0.46 0.44 0.44 0.44 0.53 0.56 0.58 0.66 0.74 0.79 0.96 1.01 1.04 0.94 0.93 0.96 1.11 1.27 1.39 1.44 1.71 1.86 1.61 1.35 1.22 1.17 1.23 1.13 1.17 1.05 0.98 0.95 1.03 1.29 1.46 1.37 1.24 1.05
0.58 0.63 0.67 0.70 0.77 0.82 0.87 0.92 0.95 0.84 0.81 0.79 0.76 0.82 0.92 1.06 1.20 1.27 1.22 1.20 1.10 1.12 1.28 1.48 1.64 2.00 2.03 1.91 1.55 1.39 1.32 1.29 1.20 1.16 1.14 1.19 1.10 1.03 1.06 1.20 1.34 1.30 1.19
0.84 0.91 0.98 1.14 1.32 1.42 1.41 1.44 1.39 1.26 1.18 1.11 1.12 1.16 1.15 1.19 1.28 1.32 1.20 1.14 1.21 1.36 1.53 1.59 1.79 2.08 1.77 1.75 1.52 1.47 1.34 1.16 1.01 0.99 1.13 1.19 1.07 1.00 1.05 1.10 1.14 1.16 1.19
1.05 1.18 1.43 1.65 1.73 1.73 1.79 1.86 1.77 1.66 1.56 1.45 1.38 1.37 1.27 1.25 1.30 1.43 1.29 1.21 1.56 1.68 1.74 1.88 2.02 2.02 1.88 1.83 1.62 1.41 1.27 1.19 0.94 0.85 0.86 0.89 0.96 0.83 0.94 1.04 1.03 1.00 1.11
1.46 1.68 2.02 2.20 2.21 2.11 2.14 2.14 2.06 1.89 1.71 1.56 1.45 1.37 1.30 1.34 1.44 1.64 1.56 1.64 1.92 1.99 1.96 1.90 2.12 2.10 1.95 1.89 1.75 1.43 1.14 1.04 0.89 0.78 0.68 0.61 0.68 0.73 0.75 0.79 0.83 0.87 1.09
1.79 2.15 2.27 2.39 2.64 2.59 2.53 2.38 2.13 1.77 1.56 1.54 1.50 1.38 1.38 1.47 1.62 1.87 1.71 1.72 1.93 2.02 1.96 1.91 1.88 1.95 1.78 1.77 1.69 1.36 1.01 0.77 0.73 0.62 0.52 0.49 0.47 0.47 0.54 0.63 0.73 0.65 0.82
1.80 2.11 2.42 2.66 2.82 2.71 2.47 2.24 2.05 1.89 1.81 1.64 1.54 1.48 1.43 1.43 1.52 1.78 1.69 1.79 1.85 1.79 1.76 1.83 1.83 1.69 1.43 1.64 1.67 1.25 0.83 0.67 0.63 0.46 0.44 0.43 0.38 0.36 0.43 0.54 0.66 0.68 0.65
1.69 2.09 2.36 2.67 2.77 2.57 2.29 2.11 2.03 2.00 1.74 1.53 1.53 1.52 1.52 1.57 1.58 1.66 1.69 1.71 1.74 1.73 1.61 1.58 1.67 1.51 1.28 1.45 1.53 1.43 0.91 0.68 0.55 0.43 0.48 0.52 0.50 0.50 0.48 0.51 0.60 0.70 0.72
1.52 1.76 1.95 2.05 2.02 1.91 1.89 1.93 1.94 1.95 1.73 1.67 1.75 1.80 1.77 1.78 1.74 1.75 1.69 1.58 1.46 1.42 1.33 1.35 1.46 1.45 1.30 1.30 1.49 1.64 1.26 0.88 0.77 0.60 0.58 0.57 0.60 0.64 0.60 0.60 0.62 0.72 0.79
1.45 1.63 1.79 1.77 1.62 1.51 1.56 1.74 1.82 1.79 1.75 1.90 2.14 2.06 1.84 1.69 1.54 1.39 1.28 1.25 1.20 1.20 1.10 1.06 1.16 1.20 1.13 1.09 1.22 1.37 1.44 1.38 1.25 0.81 0.56 0.51 0.59 0.66 0.70 0.64 0.57 0.63 0.75
1.23 1.31 1.47 1.56 1.48 1.44 1.46 1.53 1.64 1.68 1.67 1.68 1.68 1.64 1.53 1.38 1.19 1.02 0.94 0.92 0.91 0.92 0.87 0.84 0.86 0.88 0.92 0.93 1.06 1.23 1.32 1.36 1.35 1.21 0.84 0.76 0.77 0.69 0.70 0.67 0.67 0.67 0.69
1.01 1.01 1.00 1.08 1.16 1.22 1.25 1.29 1.31 1.28 1.25 1.19 1.12 1.09 1.04 0.96 0.79 0.68 0.64 0.66 0.72 0.77 0.76 0.74 0.76 0.76 0.82 0.93 0.97 1.08 1.21 1.20 1.20 1.26 1.05 0.93 0.88 0.76 0.75 0.78 0.78 0.82 0.78

GEFSSE_prec_meanprecacc_096.txt.gz
Total_Precipitation_Accumulation
0.00 0.01 0.05 0.03 0.01 0.02 0.03 0.03 0.04 0.04 0.04 0.04 0.03 0.02 0.02 0.01 0.01 0.01 0.01 0.01 0.02 0.02 0.03 0.04 0.06 0.07 0.07 0.05 0.04 0.04 0.03 0.03 0.03 0.03 0.04 0.04 0.06 0.10 0.17 0.23 0.34 0.33 0.20
0.00 0.00 0.03 0.01 0.01 0.02 0.03 0.04 0.04 0.04 0.04 0.04 0.03 0.03 0.03 0.02 0.01 0.01 0.01 0.01 0.02 0.02 0.02 0.03 0.05 0.05 0.04 0.04 0.03 0.02 0.02 0.02 0.03 0.04 0.05 0.04 0.05 0.09 0.14 0.17 0.37 0.30 0.17
0.00 0.00 0.01 0.01 0.01 0.02 0.03 0.03 0.05 0.06 0.06 0.05 0.05 0.05 0.04 0.04 0.02 0.02 0.01 0.01 0.02 0.02 0.02 0.02 0.03 0.03 0.03 0.02 0.02 0.01 0.01 0.02 0.05 0.08 0.18 0.17 0.07 0.09 0.15 0.19 0.24 0.22 0.18
0.00 0.00 0.01 0.01 0.02 0.02 0.02 0.03 0.05 0.05 0.05 0.06 0.09 0.09 0.07 0.03 0.02 0.02 0.02 0.01 0.02 0.02 0.02 0.02 0.02 0.01 0.02 0.02 0.02 0.01 0.02 0.03 0.07 0.16 0.39 0.28 0.13 0.09 0.13 0.16 0.16 0.18 0.16
0.01 0.00 0.01 0.01 0.02 0.01 0.02 0.04 0.06 0.06 0.06 0.08 0.13 0.13 0.10 0.05 0.05 0.05 0.04 0.02 0.02 0.03 0.02 0.01 0.02 0.02 0.01 0.01 0.01 0.01 0.02 0.03 0.07 0.19 0.25 0.29 0.32 0.14 0.10 0.14 0.17 0.21 0.16
0.02 0.01 0.01 0.02 0.02 0.02 0.02 0.04 0.08 0.10 0.08 0.09 0.12 0.12 0.11 0.08 0.11 0.09 0.05 0.03 0.04 0.04 0.03 0.02 0.02 0.02 0.01 0.01 0.01 0.02 0.02 0.04 0.09 0.15 0.16 0.18 0.27 0.22 0.18 0.27 0.34 0.34 0.25
0.05 0.02 0.01 0.02 0.02 0.02 0.02 0.03 0.05 0.08 0.09 0.10 0.11 0.10 0.07 0.05 0.05 0.05 0.04 0.04 0.04 0.04 0.04 0.03 0.03 0.03 0.02 0.02 0.01 0.02 0.02 0.05 0.12 0.12 0.14 0.23 0.31 0.20 0.27 0.49 0.63 0.58 0.47
0.06 0.03 0.03 0.03 0.03 0.03 0.03 0.03 0.03 0.04 0.05 0.05 0.06 0.05 0.04 0.03 0.05 0.07 0.06 0.05 0.05 0.05 0.05 0.05 0.05 0.05 0.05 0.04 0.03 0.03 0.04 0.05 0.07 0.08 0.12 0.23 0.21 0.16 0.41 0.64 0.79 0.79 0.72
0.06 0.04 0.05 0.05 0.05 0.04 0.04 0.03 0.04 0.04 0.05 0.05 0.05 0.05 0.05 0.05 0.06 0.08 0.11 0.10 0.10 0.10 0.11 0.10 0.09 0.07 0.07 0.07 0.05 0.04 0.05 0.07 0.11 0.10 0.13 0.23 0.19 0.32 0.71 0.86 0.86 0.90 0.89
0.06 0.05 0.06 0.07 0.07 0.06 0.05 0.05 0.05 0.06 0.05 0.06 0.06 0.07 0.07 0.06 0.07 0.11 0.13 0.14 0.17 0.21 0.22 0.18 0.15 0.14 0.12 0.10 0.07 0.07 0.07 0.09 0.10 0.09 0.17 0.19 0.22 0.48 0.86 1.01 1.05 1.03 0.98
0.08 0.07 0.06 0.07 0.09 0.09 0.08 0.08 0.08 0.09 0.08 0.08 0.11 0.11 0.11 0.13 0.19 0.26 0.28 0.36 0.36 0.40 0.41 0.37 0.35 0.33 0.30 0.19 0.20 0.24 0.17 0.09 0.10 0.12 0.17 0.17 0.27 0.52 0.84 1.01 1.07 1.10 1.03
0.09 0.09 0.09 0.12 0.12 0.12 0.13 0.18 0.20 0.19 0.23 0.20 0.33 0.39 0.40 0.49 0.45 0.28 0.37 0.58 0.72 0.84 0.83 0.81 0.81 0.68 0.56 0.46 0.79 0.95 0.31 0.20 0.18 0.16 0.24 0.25 0.42 0.68 0.97 1.02 1.01 1.05 0.99
0.15 0.15 0.16 0.16 0.18 0.19 0.24 0.26 0.27 0.37 0.48 0.46 0.49 0.56 0.63 0.64 0.50 0.37 0.46 0.68 0.93 1.06 1.00 1.27 1.35 1.00 1.04 1.14 1.12 1.04 0.57 0.50 0.44 0.41 0.46 0.62 0.78 1.03 1.39 1.29 1.10 1.00 0.94
0.24 0.24 0.27 0.25 0.30 0.40 0.44 0.34 0.32 0.43 0.52 0.56 0.63 0.67 0.78 0.87 0.77 0.72 0.76 0.85 1.03 1.18 1.41 1.51 1.62 1.52 1.51 1.48 1.36 1.20 1.00 0.97 0.79 0.95 1.03 0.98 1.00 1.14 1.54 1.53 1.24 1.09 0.95
0.49 0.46 0.45 0.51 0.51 0.58 0.56 0.56 0.53 0.63 0.67 0.71 0.79 0.88 0.93 1.13 1.18 1.21 1.10 1.10 1.12 1.27 1.44 1.57 1.65 1.95 2.08 1.79 1.47 1.34 1.30 1.35 1.19 1.25 1.18 1.10 1.01 1.07 1.32 1.50 1.42 1.30 1.11
0.67 0.77 0.76 0.78 0.87 0.93 1.00 1.05 1.06 0.94 0.92 0.91 0.91 0.97 1.06 1.23 1.41 1.49 1.40 1.37 1.26 1.30 1.47 1.68 1.85 2.23 2.24 2.08 1.68 1.52 1.44 1.39 1.28 1.22 1.24 1.35 1.19 1.07 1.09 1.23 1.38 1.35 1.26
0.93 1.03 1.10 1.23 1.41 1.51 1.50 1.54 1.50 1.39 1.31 1.23 1.25 1.29 1.27 1.31 1.42 1.45 1.33 1.28 1.35 1.50 1.65 1.73 1.93 2.22 1.91 1.89 1.65 1.59 1.43 1.23 1.08 1.04 1.19 1.29 1.18 1.08 1.11 1.14 1.17 1.20 1.25
1.15 1.31 1.56 1.75 1.81 1.81 1.88 1.95 1.87 1.75 1.65 1.54 1.49 1.52 1.41 1.35 1.38 1.51 1.37 1.29 1.64 1.76 1.83 1.97 2.11 2.11 1.99 1.94 1.74 1.52 1.37 1.27 1.02 0.93 0.92 0.96 1.06 0.92 1.03 1.11 1.07 1.04 1.15
1.60 1.85 2.18 2.32 2.31 2.19 2.20 2.21 2.16 1.99 1.79 1.65 1.56 1.52 1.39 1.40 1.49 1.69 1.61 1.69 1.97 2.03 2.01 1.95 2.19 2.18 2.03 1.99 1.83 1.54 1.25 1.11 0.95 0.83 0.74 0.67 0.75 0.80 0.83 0.88 0.89 0.92 1.12
1.90 2.26 2.36 2.49 2.80 2.73 2.62 2.46 2.22 1.86 1.63 1.59 1.57 1.44 1.44 1.52 1.65 1.90 1.74 1.75 1.96 2.05 1.98 1.95 1.92 2.00 1.83 1.83 1.75 1.44 1.10 0.83 0.78 0.67 0.56 0.53 0.53 0.53 0.60 0.71 0.83 0.71 0.86
1.87 2.17 2.49 2.74 2.89 2.79 2.56 2.31 2.11 1.94 1.85 1.66 1.57 1.50 1.46 1.46 1.55 1.80 1.71 1.81 1.86 1.81 1.79 1.85 1.86 1.72 1.47 1.69 1.72 1.30 0.89 0.71 0.67 0.49 0.47 0.46 0.42 0.43 0.52 0.67 0.79 0.79 0.71
1.74 2.13 2.40 2.71 2.81 2.61 2.33 2.16 2.07 2.03 1.76 1.54 1.54 1.53 1.53 1.58 1.59 1.67 1.71 1.72 1.76 1.74 1.63 1.60 1.69 1.54 1.31 1.49 1.56 1.46 0.94 0.72 0.59 0.46 0.51 0.56 0.54 0.56 0.57 0.61 0.72 0.84 0.83
1.54 1.78 1.98 2.07 2.05 1.94 1.91 1.95 1.97 1.97 1.74 1.69 1.77 1.81 1.78 1.79 1.76 1.76 1.70 1.59 1.47 1.42 1.34 1.36 1.47 1.46 1.32 1.32 1.51 1.66 1.28 0.90 0.81 0.64 0.62 0.62 0.68 0.72 0.68 0.69 0.72 0.82 0.90
1.46 1.63 1.80 1.79 1.65 1.53 1.58 1.77 1.84 1.81 1.76 1.91 2.15 2.07 1.85 1.69 1.56 1.40 1.28 1.26 1.22 1.21 1.11 1.06 1.17 1.22 1.15 1.10 1.24 1.39 1.46 1.41 1.29 0.84 0.61 0.57 0.68 0.76 0.80 0.73 0.66 0.72 0.87
1.23 1.32 1.48 1.58 1.50 1.45 1.47 1.54 1.66 1.69 1.69 1.69 1.69 1.65 1.54 1.38 1.19 1.02 0.94 0.94 0.93 0.93 0.88 0.85 0.87 0.89 0.93 0.94 1.07 1.24 1.34 1.39 1.38 1.25 0.87 0.81 0.82 0.76 0.78 0.76 0.76 0.76 0.80
1.01 1.02 1.00 1.11 1.18 1.23 1.27 1.30 1.33 1.30 1.27 1.21 1.14 1.11 1.05 0.96 0.80 0.68 0.65 0.68 0.73 0.79 0.77 0.75 0.77 0.77 0.83 0.94 0.98 1.09 1.22 1.21 1.22 1.29 1.08 0.97 0.92 0.81 0.82 0.85 0.84 0.90 0.87

GEFSSE_prec_meanprecacc_102.txt.gz
Total_Precipitation_Accumulation
0.01 0.01 0.06 0.03 0.01 0.02 0.03 0.04 0.04 0.04 0.04 0.04 0.04 0.03 0.02 0.01 0.01 0.01 0.01 0.02 0.02 0.03 0.03 0.04 0.07 0.08 0.08 0.07 0.06 0.05 0.04 0.04 0.06 0.06 0.08 0.08 0.09 0.15 0.27 0.34 0.42 0.37 0.26
0.01 0.01 0.03 0.02 0.01 0.02 0.04 0.04 0.05 0.05 0.05 0.04 0.04 0.03 0.03 0.02 0.01 0.02 0.02 0.02 0.02 0.03 0.03 0.04 0.05 0.05 0.05 0.04 0.03 0.02 0.03 0.04 0.06 0.09 0.10 0.08 0.09 0.13 0.20 0.24 0.41 0.32 0.21
0.01 0.00 0.02 0.01 0.01 0.03 0.03 0.04 0.06 0.06 0.07 0.06 0.06 0.06 0.05 0.04 0.02 0.02 0.02 0.02 0.02 0.02 0.02 0.02 0.03 0.03 0.03 0.03 0.02 0.02 0.03 0.05 0.10 0.15 0.23 0.18 0.09 0.16 0.23 0.26 0.29 0.25 0.20
0.02 0.01 0.01 0.01 0.02 0.02 0.03 0.04 0.06 0.06 0.06 0.07 0.10 0.10 0.08 0.04 0.03 0.02 0.02 0.02 0.02 0.02 0.02 0.02 0.02 0.02 0.02 0.02 0.02 0.02 0.03 0.06 0.12 0.22 0.43 0.29 0.14 0.14 0.18 0.19 0.19 0.20 0.17
0.02 0.02 0.01 0.02 0.02 0.02 0.03 0.04 0.07 0.07 0.07 0.09 0.14 0.14 0.11 0.05 0.06 0.06 0.04 0.03 0.03 0.03 0.02 0.02 0.02 0.02 0.01 0.01 0.02 0.02 0.03 0.06 0.12 0.24 0.30 0.31 0.33 0.17 0.13 0.16 0.19 0.23 0.17
0.04 0.02 0.02 0.02 0.02 0.02 0.03 0.04 0.09 0.11 0.09 0.10 0.13 0.13 0.11 0.09 0.11 0.10 0.05 0.04 0.04 0.04 0.04 0.02 0.02 0.02 0.01 0.01 0.02 0.02 0.04 0.07 0.13 0.20 0.22 0.21 0.29 0.24 0.19 0.28 0.35 0.35 0.26
0.06 0.03 0.02 0.03 0.03 0.03 0.03 0.03 0.06 0.09 0.10 0.12 0.13 0.10 0.08 0.06 0.06 0.06 0.04 0.04 0.04 0.04 0.04 0.03 0.03 0.03 0.02 0.02 0.02 0.02 0.04 0.09 0.15 0.17 0.19 0.26 0.32 0.22 0.29 0.50 0.64 0.59 0.47
0.07 0.04 0.04 0.04 0.04 0.04 0.03 0.03 0.04 0.05 0.06 0.06 0.07 0.06 0.05 0.04 0.06 0.07 0.06 0.05 0.05 0.05 0.05 0.05 0.05 0.05 0.05 0.04 0.03 0.04 0.06 0.07 0.10 0.14 0.18 0.26 0.23 0.18 0.41 0.65 0.80 0.80 0.73
0.06 0.04 0.06 0.05 0.05 0.05 0.05 0.04 0.04 0.05 0.06 0.06 0.06 0.06 0.06 0.06 0.07 0.09 0.11 0.11 0.10 0.11 0.11 0.11 0.09 0.07 0.07 0.07 0.05 0.05 0.06 0.09 0.14 0.18 0.21 0.28 0.23 0.35 0.72 0.86 0.86 0.91 0.89
0.09 0.06 0.07 0.07 0.07 0.07 0.06 0.06 0.06 0.07 0.07 0.07 0.08 0.08 0.08 0.08 0.09 0.13 0.14 0.15 0.18 0.22 0.23 0.18 0.16 0.14 0.13 0.10 0.08 0.07 0.08 0.11 0.12 0.16 0.27 0.25 0.27 0.52 0.88 1.02 1.05 1.03 0.98
0.14 0.10 0.08 0.08 0.09 0.10 0.09 0.09 0.10 0.10 0.10 0.10 0.13 0.14 0.14 0.16 0.23 0.30 0.32 0.39 0.39 0.41 0.43 0.39 0.36 0.35 0.32 0.20 0.22 0.26 0.19 0.10 0.12 0.16 0.22 0.22 0.33 0.58 0.88 1.03 1.07 1.10 1.04
0.21 0.15 0.14 0.14 0.14 0.15 0.16 0.21 0.23 0.23 0.26 0.23 0.36 0.43 0.44 0.54 0.51 0.35 0.45 0.68 0.80 0.89 0.86 0.84 0.84 0.70 0.58 0.48 0.81 0.99 0.34 0.23 0.22 0.22 0.29 0.34 0.54 0.80 1.06 1.06 1.03 1.05 1.00
0.28 0.24 0.26 0.25 0.25 0.24 0.31 0.31 0.35 0.46 0.57 0.54 0.58 0.65 0.71 0.73 0.60 0.48 0.57 0.79 1.03 1.15 1.06 1.33 1.40 1.03 1.07 1.19 1.18 1.10 0.62 0.58 0.56 0.56 0.59 0.74 0.92 1.16 1.49 1.34 1.13 1.01 0.95
0.37 0.35 0.51 0.44 0.44 0.51 0.58 0.43 0.44 0.52 0.61 0.67 0.80 0.84 0.90 0.98 0.90 0.87 0.90 0.96 1.13 1.29 1.51 1.61 1.72 1.60 1.58 1.56 1.50 1.34 1.11 1.08 0.97 1.19 1.22 1.14 1.17 1.30 1.68 1.62 1.30 1.11 0.96
0.65 0.61 0.64 0.68 0.72 0.79 0.70 0.69 0.65 0.73 0.78 0.82 0.89 1.01 1.04 1.23 1.30 1.32 1.22 1.19 1.19 1.34 1.51 1.65 1.74 2.03 2.17 1.89 1.57 1.45 1.40 1.46 1.33 1.40 1.35 1.28 1.18 1.23 1.47 1.62 1.50 1.35 1.15
0.87 0.95 0.89 0.91 1.03 1.12 1.15 1.19 1.18 1.04 1.03 1.02 1.00 1.06 1.13 1.29 1.47 1.55 1.47 1.44 1.33 1.36 1.52 1.72 1.89 2.28 2.29 2.15 1.74 1.59 1.54 1.49 1.37 1.31 1.37 1.53 1.36 1.20 1.21 1.35 1.49 1.44 1.33
1.14 1.20 1.24 1.35 1.53 1.62 1.60 1.64 1.60 1.45 1.36 1.29 1.29 1.34 1.33 1.37 1.49 1.52 1.38 1.33 1.38 1.53 1.68 1.76 1.97 2.26 1.96 1.93 1.69 1.63 1.48 1.30 1.17 1.13 1.28 1.42 1.29 1.20 1.23 1.26 1.31 1.33 1.35
1.38 1.51 1.73 1.87 1.91 1.91 1.98 2.04 1.95 1.82 1.70 1.58 1.52 1.56 1.46 1.40 1.44 1.56 1.40 1.31 1.66 1.79 1.85 2.00 2.15 2.15 2.04 1.98 1.77 1.56 1.40 1.30 1.06 0.98 0.98 1.03 1.13 0.99 1.12 1.23 1.20 1.17 1.27
1.78 2.05 2.35 2.43 2.41 2.31 2.31 2.28 2.20 2.03 1.83 1.67 1.57 1.54 1.41 1.42 1.51 1.72 1.64 1.71 1.99 2.06 2.03 1.97 2.22 2.21 2.06 2.02 1.85 1.56 1.26 1.13 0.97 0.85 0.77 0.71 0.79 0.85 0.88 0.95 1.03 1.07 1.26
2.04 2.37 2.45 2.56 2.84 2.79 2.66 2.48 2.23 1.88 1.64 1.61 1.58 1.45 1.46 1.54 1.67 1.92 1.77 1.78 1.97 2.06 2.00 1.96 1.93 2.01 1.84 1.84 1.76 1.46 1.13 0.87 0.81 0.69 0.58 0.55 0.56 0.57 0.65 0.77 0.92 0.82 1.01
1.98 2.27 2.55 2.78 2.92 2.81 2.58 2.34 2.13 1.95 1.86 1.67 1.57 1.52 1.49 1.49 1.57 1.82 1.72 1.82 1.88 1.83 1.80 1.87 1.87 1.73 1.47 1.70 1.73 1.32 0.91 0.73 0.69 0.50 0.49 0.48 0.45 0.47 0.57 0.72 0.85 0.85 0.78
1.82 2.20 2.46 2.75 2.84 2.63 2.36 2.18 2.08 2.04 1.77 1.55 1.55 1.54 1.56 1.63 1.62 1.70 1.73 1.73 1.76 1.75 1.64 1.61 1.70 1.55 1.31 1.49 1.57 1.48 0.95 0.73 0.61 0.47 0.53 0.58 0.58 0.62 0.63 0.67 0.78 0.90 0.91
1.59 1.82 2.01 2.11 2.07 1.96 1.93 1.98 1.98 1.98 1.75 1.70 1.78 1.82 1.80 1.81 1.78 1.77 1.71 1.60 1.47 1.42 1.34 1.37 1.47 1.47 1.32 1.33 1.51 1.67 1.29 0.91 0.81 0.64 0.63 0.64 0.73 0.79 0.74 0.75 0.78 0.88 0.97
1.49 1.67 1.83 1.82 1.67 1.55 1.59 1.77 1.85 1.81 1.77 1.92 2.15 2.08 1.86 1.70 1.57 1.41 1.28 1.26 1.22 1.21 1.11 1.07 1.17 1.22 1.15 1.10 1.24 1.39 1.47 1.42 1.29 0.84 0.61 0.58 0.69 0.78 0.84 0.78 0.71 0.77 0.93
1.25 1.38 1.53 1.61 1.53 1.48 1.49 1.55 1.66 1.70 1.70 1.70 1.70 1.66 1.55 1.38 1.20 1.03 0.94 0.94 0.93 0.93 0.88 0.85 0.87 0.89 0.93 0.94 1.07 1.24 1.34 1.39 1.38 1.25 0.87 0.81 0.83 0.77 0.80 0.79 0.81 0.81 0.85
1.03 1.04 1.02 1.13 1.20 1.24 1.27 1.31 1.33 1.31 1.28 1.22 1.14 1.12 1.05 0.96 0.80 0.68 0.65 0.68 0.73 0.79 0.77 0.75 0.77 0.77 0.83 0.94 0.98 1.09 1.22 1.21 1.22 1.29 1.08 0.97 0.92 0.82 0.82 0.86 0.86 0.91 0.91

GEFSSE_prec_meanprecacc_108.txt.gz
Total_Precipitation_Accumulation
0.03 0.04 0.09 0.06 0.02 0.03 0.04 0.04 0.04 0.05 0.04 0.04 0.04 0.03 0.02 0.01 0.01 0.01 0.01 0.02 0.02 0.03 0.03 0.05 0.07 0.08 0.09 0.07 0.06 0.06 0.05 0.05 0.07 0.08 0.09 0.10 0.13 0.21 0.36 0.42 0.47 0.41 0.30
0.01 0.02 0.06 0.05 0.03 0.03 0.04 0.04 0.06 0.06 0.05 0.05 0.04 0.04 0.03 0.03 0.02 0.02 0.02 0.02 0.02 0.03 0.03 0.04 0.06 0.06 0.05 0.04 0.03 0.03 0.03 0.04 0.07 0.12 0.14 0.12 0.15 0.20 0.27 0.32 0.46 0.34 0.25
0.03 0.02 0.04 0.05 0.04 0.04 0.04 0.05 0.07 0.08 0.08 0.07 0.06 0.06 0.05 0.04 0.02 0.02 0.02 0.02 0.02 0.03 0.03 0.03 0.04 0.04 0.03 0.03 0.02 0.02 0.03 0.06 0.11 0.19 0.27 0.22 0.16 0.26 0.30 0.32 0.34 0.29 0.24
0.05 0.03 0.02 0.04 0.05 0.04 0.04 0.05 0.07 0.07 0.07 0.08 0.11 0.10 0.08 0.04 0.03 0.03 0.03 0.02 0.02 0.02 0.02 0.02 0.02 0.02 0.02 0.02 0.02 0.02 0.04 0.07 0.14 0.24 0.43 0.30 0.18 0.22 0.25 0.24 0.25 0.27 0.21
0.05 0.03 0.03 0.05 0.05 0.04 0.04 0.05 0.08 0.08 0.08 0.09 0.14 0.15 0.11 0.06 0.06 0.06 0.04 0.03 0.03 0.03 0.02 0.02 0.02 0.02 0.02 0.02 0.02 0.03 0.05 0.08 0.13 0.25 0.30 0.32 0.36 0.22 0.19 0.21 0.22 0.26 0.19
0.07 0.04 0.05 0.06 0.06 0.05 0.05 0.06 0.10 0.13 0.10 0.11 0.14 0.13 0.12 0.09 0.12 0.10 0.05 0.04 0.04 0.05 0.04 0.02 0.02 0.02 0.02 0.02 0.03 0.04 0.06 0.10 0.14 0.20 0.22 0.21 0.31 0.27 0.23 0.33 0.39 0.37 0.27
0.08 0.05 0.06 0.07 0.07 0.06 0.05 0.05 0.07 0.11 0.12 0.13 0.14 0.11 0.08 0.06 0.06 0.06 0.05 0.04 0.04 0.04 0.04 0.03 0.04 0.03 0.03 0.02 0.02 0.03 0.06 0.11 0.15 0.18 0.20 0.26 0.34 0.26 0.32 0.54 0.67 0.60 0.48
0.10 0.08 0.09 0.11 0.09 0.08 0.06 0.06 0.06 0.07 0.08 0.08 0.08 0.07 0.05 0.04 0.07 0.08 0.07 0.06 0.05 0.05 0.06 0.05 0.05 0.06 0.05 0.04 0.04 0.05 0.07 0.09 0.11 0.15 0.19 0.26 0.25 0.22 0.45 0.68 0.82 0.81 0.74
0.11 0.09 0.11 0.12 0.10 0.10 0.09 0.07 0.07 0.08 0.08 0.08 0.08 0.08 0.08 0.07 0.08 0.10 0.13 0.12 0.12 0.12 0.12 0.11 0.09 0.08 0.08 0.07 0.06 0.06 0.08 0.12 0.15 0.20 0.23 0.29 0.26 0.39 0.76 0.89 0.88 0.92 0.90
0.17 0.14 0.12 0.11 0.12 0.10 0.09 0.09 0.10 0.10 0.09 0.09 0.10 0.09 0.11 0.10 0.11 0.15 0.16 0.17 0.20 0.24 0.25 0.19 0.17 0.15 0.14 0.12 0.09 0.10 0.11 0.13 0.13 0.18 0.28 0.27 0.31 0.56 0.91 1.05 1.07 1.04 0.99
0.21 0.18 0.15 0.12 0.14 0.14 0.12 0.13 0.14 0.15 0.14 0.13 0.16 0.17 0.17 0.17 0.24 0.33 0.35 0.43 0.43 0.45 0.46 0.42 0.39 0.37 0.34 0.22 0.24 0.28 0.21 0.12 0.14 0.17 0.23 0.23 0.38 0.64 0.93 1.06 1.10 1.11 1.04
0.29 0.23 0.20 0.20 0.20 0.20 0.20 0.26 0.29 0.28 0.31 0.27 0.39 0.46 0.47 0.56 0.53 0.38 0.50 0.75 0.88 0.96 0.93 0.91 0.89 0.75 0.61 0.49 0.82 1.00 0.36 0.24 0.23 0.24 0.30 0.36 0.60 0.87 1.14 1.11 1.05 1.07 1.01
0.35 0.29 0.31 0.32 0.31 0.31 0.39 0.37 0.41 0.51 0.62 0.58 0.61 0.69 0.74 0.77 0.63 0.52 0.62 0.88 1.14 1.26 1.15 1.42 1.47 1.07 1.09 1.20 1.18 1.11 0.63 0.59 0.57 0.57 0.60 0.77 0.98 1.23 1.59 1.43 1.19 1.05 0.97
0.48 0.43 0.59 0.51 0.52 0.62 0.70 0.52 0.52 0.60 0.68 0.74 0.89 0.93 0.99 1.06 0.97 0.94 0.96 1.03 1.23 1.40 1.60 1.70 1.79 1.65 1.61 1.58 1.53 1.36 1.13 1.11 0.99 1.22 1.24 1.18 1.22 1.38 1.78 1.74 1.39 1.17 1.01
0.85 0.76 0.73 0.75 0.86 0.96 0.84 0.81 0.77 0.86 0.90 0.93 1.00 1.12 1.15 1.32 1.38 1.39 1.29 1.26 1.28 1.43 1.58 1.71 1.79 2.09 2.22 1.93 1.60 1.47 1.43 1.48 1.36 1.43 1.37 1.32 1.24 1.31 1.57 1.75 1.62 1.45 1.22
1.13 1.15 1.02 1.03 1.16 1.26 1.28 1.33 1.31 1.17 1.18 1.18 1.14 1.16 1.23 1.38 1.54 1.62 1.54 1.50 1.40 1.42 1.57 1.76 1.93 2.33 2.34 2.19 1.77 1.61 1.56 1.51 1.39 1.33 1.39 1.56 1.41 1.27 1.30 1.46 1.62 1.58 1.47
1.38 1.41 1.41 1.50 1.69 1.77 1.74 1.75 1.69 1.56 1.50 1.42 1.43 1.44 1.42 1.45 1.56 1.57 1.42 1.36 1.42 1.57 1.72 1.78 1.99 2.28 1.98 1.95 1.71 1.65 1.51 1.32 1.18 1.15 1.31 1.44 1.33 1.27 1.32 1.37 1.43 1.46 1.49
1.62 1.72 1.91 2.03 2.08 2.06 2.08 2.12 2.03 1.91 1.78 1.66 1.60 1.62 1.53 1.46 1.48 1.59 1.43 1.34 1.68 1.81 1.87 2.01 2.16 2.16 2.05 1.99 1.79 1.57 1.41 1.32 1.07 1.00 1.00 1.05 1.15 1.03 1.18 1.33 1.33 1.32 1.42
2.05 2.30 2.53 2.57 2.53 2.40 2.37 2.34 2.27 2.10 1.90 1.74 1.61 1.57 1.44 1.45 1.54 1.75 1.68 1.75 2.02 2.08 2.05 1.99 2.23 2.22 2.07 2.03 1.86 1.57 1.27 1.14 0.98 0.86 0.78 0.72 0.80 0.87 0.91 1.00 1.13 1.21 1.44
2.33 2.62 2.63 2.70 2.95 2.86 2.71 2.52 2.27 1.91 1.69 1.66 1.61 1.47 1.47 1.55 1.69 1.94 1.80 1.81 2.00 2.08 2.02 1.98 1.95 2.02 1.85 1.85 1.77 1.47 1.14 0.87 0.81 0.70 0.59 0.57 0.58 0.59 0.68 0.81 0.97 0.89 1.14
2.19 2.45 2.73 2.92 3.03 2.88 2.62 2.37 2.15 1.97 1.87 1.68 1.59 1.53 1.50 1.49 1.58 1.84 1.75 1.84 1.89 1.84 1.81 1.88 1.88 1.74 1.48 1.71 1.74 1.32 0.92 0.73 0.69 0.51 0.49 0.48 0.46 0.48 0.59 0.74 0.89 0.88 0.83
1.96 2.33 2.59 2.86 2.92 2.68 2.40 2.21 2.11 2.06 1.79 1.56 1.55 1.54 1.56 1.64 1.63 1.71 1.75 1.74 1.77 1.75 1.64 1.61 1.70 1.55 1.32 1.50 1.58 1.48 0.96 0.73 0.61 0.47 0.53 0.58 0.59 0.63 0.64 0.68 0.80 0.92 0.93
1.68 1.91 2.09 2.18 2.13 2.01 1.99 2.02 2.01 2.00 1.76 1.70 1.78 1.82 1.80 1.82 1.80 1.79 1.72 1.60 1.47 1.43 1.34 1.37 1.48 1.47 1.32 1.33 1.52 1.68 1.30 0.91 0.81 0.64 0.63 0.65 0.73 0.79 0.74 0.76 0.78 0.89 0.98
1.55 1.74 1.90 1.87 1.72 1.60 1.64 1.80 1.87 1.83 1.78 1.92 2.16 2.08 1.86 1.70 1.57 1.42 1.29 1.26 1.22 1.21 1.12 1.07 1.18 1.22 1.15 1.10 1.24 1.40 1.47 1.42 1.29 0.84 0.61 0.58 0.69 0.78 0.84 0.79 0.71 0.78 0.95
1.31 1.43 1.58 1.65 1.56 1.51 1.51 1.57 1.67 1.70 1.70 1.70 1.70 1.66 1.55 1.38 1.20 1.03 0.94 0.94 0.93 0.93 0.88 0.85 0.87 0.89 0.94 0.94 1.08 1.24 1.34 1.39 1.39 1.25 0.87 0.81 0.83 0.77 0.80 0.79 0.81 0.81 0.86
1.07 1.08 1.05 1.14 1.21 1.25 1.28 1.32 1.34 1.31 1.28 1.22 1.14 1.12 1.05 0.96 0.80 0.68 0.65 0.68 0.73 0.79 0.77 0.75 0.77 0.77 0.83 0.94 0.98 1.09 1.22 1.21 1.22 1.29 1.08 0.97 0.92 0.82 0.82 0.86 0.86 0.92 0.91

GEFSSE_prec_meanprecacc_114.txt.gz
Total_Precipitation_Accumulation
0.03 0.04 0.11 0.07 0.03 0.05 0.06 0.06 0.06 0.06 0.05 0.05 0.04 0.03 0.02 0.02 0.01 0.02 0.02 0.02 0.03 0.04 0.05 0.07 0.08 0.10 0.10 0.08 0.07 0.07 0.06 0.05 0.08 0.11 0.13 0.14 0.16 0.27 0.43 0.47 0.52 0.44 0.34
0.02 0.03 0.08 0.06 0.04 0.05 0.07 0.07 0.07 0.07 0.06 0.05 0.05 0.04 0.03 0.03 0.02 0.02 0.03 0.03 0.03 0.04 0.04 0.05 0.07 0.06 0.06 0.05 0.04 0.03 0.04 0.06 0.09 0.15 0.18 0.18 0.20 0.27 0.35 0.36 0.51 0.38 0.27
0.03 0.03 0.05 0.07 0.06 0.06 0.06 0.07 0.08 0.09 0.08 0.07 0.07 0.06 0.06 0.05 0.03 0.03 0.03 0.03 0.03 0.03 0.03 0.03 0.04 0.04 0.04 0.03 0.02 0.03 0.04 0.07 0.14 0.21 0.32 0.29 0.21 0.30 0.35 0.36 0.38 0.32 0.26
0.06 0.03 0.02 0.06 0.07 0.06 0.06 0.06 0.07 0.08 0.08 0.08 0.11 0.11 0.09 0.05 0.04 0.03 0.03 0.03 0.03 0.03 0.03 0.03 0.03 0.02 0.02 0.02 0.03 0.03 0.05 0.09 0.17 0.27 0.48 0.35 0.21 0.25 0.30 0.30 0.28 0.29 0.24
0.06 0.04 0.05 0.06 0.07 0.07 0.07 0.07 0.09 0.09 0.08 0.10 0.15 0.15 0.12 0.07 0.07 0.07 0.05 0.03 0.04 0.04 0.03 0.02 0.03 0.02 0.02 0.02 0.03 0.04 0.08 0.10 0.15 0.26 0.32 0.36 0.42 0.26 0.25 0.28 0.26 0.28 0.22
0.08 0.06 0.08 0.08 0.08 0.07 0.08 0.08 0.12 0.15 0.12 0.13 0.14 0.13 0.13 0.10 0.13 0.11 0.06 0.05 0.05 0.05 0.04 0.03 0.03 0.03 0.02 0.02 0.04 0.06 0.08 0.13 0.16 0.21 0.23 0.24 0.35 0.31 0.27 0.39 0.43 0.40 0.29
0.10 0.07 0.09 0.11 0.10 0.08 0.08 0.08 0.10 0.13 0.14 0.16 0.16 0.12 0.09 0.07 0.07 0.07 0.06 0.06 0.05 0.05 0.05 0.04 0.04 0.04 0.04 0.04 0.04 0.06 0.10 0.15 0.17 0.19 0.21 0.28 0.37 0.28 0.36 0.58 0.71 0.64 0.50
0.12 0.10 0.12 0.15 0.13 0.12 0.10 0.09 0.09 0.09 0.10 0.10 0.11 0.09 0.06 0.06 0.08 0.10 0.08 0.06 0.06 0.06 0.06 0.06 0.06 0.06 0.06 0.05 0.06 0.08 0.11 0.13 0.12 0.16 0.20 0.29 0.27 0.25 0.49 0.71 0.85 0.84 0.76
0.14 0.12 0.14 0.16 0.15 0.15 0.16 0.13 0.12 0.12 0.12 0.13 0.13 0.11 0.09 0.09 0.10 0.12 0.14 0.13 0.13 0.13 0.13 0.12 0.09 0.08 0.09 0.09 0.08 0.09 0.11 0.15 0.18 0.21 0.24 0.31 0.27 0.42 0.80 0.92 0.91 0.94 0.91
0.21 0.20 0.18 0.18 0.19 0.16 0.15 0.16 0.16 0.16 0.15 0.14 0.14 0.12 0.13 0.12 0.14 0.17 0.18 0.19 0.22 0.26 0.26 0.21 0.18 0.16 0.15 0.13 0.12 0.13 0.14 0.15 0.16 0.20 0.30 0.29 0.32 0.59 0.96 1.10 1.11 1.07 1.00
0.27 0.26 0.24 0.21 0.22 0.22 0.18 0.18 0.21 0.22 0.21 0.19 0.22 0.22 0.21 0.22 0.29 0.36 0.37 0.45 0.45 0.48 0.49 0.45 0.41 0.40 0.36 0.24 0.26 0.31 0.23 0.14 0.16 0.20 0.26 0.25 0.40 0.67 0.99 1.13 1.15 1.15 1.07
0.37 0.34 0.32 0.32 0.30 0.29 0.27 0.35 0.39 0.37 0.39 0.34 0.47 0.54 0.54 0.63 0.60 0.42 0.53 0.79 0.92 1.01 0.97 0.94 0.92 0.77 0.63 0.52 0.84 1.02 0.37 0.25 0.25 0.27 0.34 0.39 0.64 0.93 1.22 1.19 1.12 1.13 1.05
0.46 0.42 0.44 0.43 0.43 0.41 0.49 0.46 0.49 0.59 0.71 0.67 0.70 0.78 0.83 0.84 0.70 0.59 0.71 0.96 1.23 1.34 1.22 1.47 1.51 1.10 1.12 1.23 1.21 1.12 0.64 0.60 0.58 0.58 0.62 0.80 1.03 1.31 1.71 1.55 1.27 1.12 1.03
0.60 0.53 0.69 0.59 0.63 0.73 0.79 0.59 0.59 0.67 0.76 0.83 0.99 1.03 1.09 1.17 1.08 1.04 1.07 1.14 1.35 1.51 1.71 1.78 1.87 1.71 1.66 1.62 1.55 1.37 1.15 1.12 1.02 1.25 1.27 1.21 1.26 1.45 1.91 1.90 1.52 1.27 1.09
1.01 0.86 0.82 0.84 0.95 1.05 0.93 0.88 0.83 0.92 0.97 1.01 1.07 1.20 1.24 1.43 1.50 1.51 1.41 1.38 1.39 1.55 1.71 1.82 1.89 2.18 2.29 1.98 1.63 1.50 1.46 1.51 1.39 1.46 1.40 1.36 1.28 1.36 1.66 1.89 1.77 1.58 1.33
1.31 1.26 1.11 1.11 1.25 1.35 1.36 1.40 1.38 1.25 1.25 1.25 1.21 1.23 1.32 1.49 1.65 1.74 1.64 1.59 1.50 1.53 1.67 1.86 2.04 2.43 2.42 2.26 1.82 1.65 1.60 1.54 1.42 1.37 1.43 1.59 1.44 1.31 1.36 1.57 1.76 1.75 1.62
1.53 1.52 1.51 1.59 1.78 1.86 1.82 1.83 1.75 1.61 1.54 1.49 1.49 1.51 1.49 1.53 1.65 1.65 1.49 1.43 1.50 1.65 1.79 1.84 2.04 2.33 2.03 2.00 1.75 1.68 1.53 1.34 1.21 1.19 1.34 1.48 1.36 1.30 1.36 1.45 1.55 1.60 1.65
1.73 1.82 2.02 2.12 2.17 2.14 2.17 2.19 2.09 1.95 1.81 1.70 1.65 1.67 1.58 1.52 1.54 1.64 1.48 1.39 1.72 1.85 1.91 2.04 2.18 2.19 2.08 2.02 1.82 1.59 1.43 1.33 1.09 1.02 1.03 1.08 1.18 1.04 1.21 1.38 1.41 1.44 1.57
2.17 2.39 2.63 2.69 2.62 2.47 2.46 2.40 2.31 2.15 1.96 1.79 1.66 1.62 1.48 1.48 1.57 1.79 1.71 1.78 2.04 2.11 2.07 2.01 2.25 2.23 2.09 2.04 1.87 1.58 1.28 1.15 0.99 0.88 0.80 0.74 0.83 0.89 0.93 1.05 1.18 1.26 1.55
2.46 2.73 2.74 2.80 3.03 2.92 2.77 2.57 2.31 1.96 1.74 1.71 1.67 1.52 1.51 1.58 1.70 1.95 1.81 1.83 2.02 2.10 2.04 2.00 1.97 2.03 1.85 1.85 1.77 1.47 1.14 0.87 0.82 0.70 0.59 0.58 0.60 0.61 0.70 0.85 1.04 0.93 1.19
2.35 2.58 2.82 3.01 3.10 2.92 2.67 2.41 2.19 2.00 1.91 1.72 1.63 1.56 1.52 1.51 1.59 1.85 1.76 1.86 1.91 1.86 1.83 1.90 1.89 1.74 1.48 1.71 1.74 1.32 0.92 0.73 0.69 0.51 0.49 0.49 0.47 0.50 0.62 0.79 0.95 0.94 0.88
2.11 2.46 2.69 2.95 2.98 2.73 2.44 2.24 2.14 2.08 1.82 1.58 1.57 1.55 1.57 1.65 1.64 1.72 1.75 1.75 1.78 1.77 1.66 1.64 1.72 1.56 1.32 1.50 1.58 1.49 0.96 0.73 0.61 0.47 0.53 0.59 0.60 0.65 0.67 0.72 0.85 0.97 0.98
1.81 2.00 2.15 2.23 2.20 2.05 2.03 2.05 2.04 2.03 1.79 1.72 1.79 1.83 1.81 1.83 1.81 1.80 1.73 1.61 1.49 1.45 1.37 1.39 1.49 1.47 1.32 1.33 1.52 1.68 1.30 0.92 0.81 0.64 0.63 0.65 0.74 0.81 0.77 0.79 0.82 0.94 1.03
1.65 1.82 1.94 1.90 1.75 1.62 1.66 1.83 1.89 1.85 1.80 1.94 2.17 2.09 1.87 1.72 1.59 1.43 1.31 1.28 1.24 1.23 1.13 1.08 1.19 1.23 1.16 1.11 1.24 1.40 1.47 1.42 1.30 0.84 0.61 0.58 0.69 0.79 0.86 0.81 0.73 0.81 0.98
1.38 1.50 1.63 1.68 1.58 1.52 1.53 1.59 1.70 1.73 1.71 1.71 1.71 1.67 1.56 1.39 1.21 1.04 0.95 0.95 0.94 0.94 0.89 0.86 0.88 0.90 0.94 0.95 1.08 1.24 1.34 1.39 1.39 1.25 0.87 0.82 0.83 0.77 0.80 0.80 0.82 0.83 0.87
1.10 1.11 1.09 1.18 1.24 1.27 1.30 1.33 1.37 1.34 1.29 1.22 1.14 1.12 1.06 0.97 0.80 0.69 0.65 0.68 0.74 0.79 0.77 0.76 0.78 0.77 0.84 0.95 0.98 1.09 1.22 1.22 1.22 1.30 1.09 0.97 0.92 0.82 0.82 0.86 0.86 0.92 0.91

GEFSSE_prec_meanprecacc_120.txt.gz
Total_Precipitation_Accumulation
0.03 0.04 0.11 0.08 0.04 0.06 0.08 0.09 0.08 0.08 0.07 0.05 0.06 0.05 0.03 0.03 0.02 0.02 0.03 0.03 0.04 0.06 0.06 0.08 0.10 0.11 0.11 0.10 0.08 0.07 0.06 0.06 0.09 0.13 0.17 0.18 0.20 0.31 0.49 0.56 0.65 0.50 0.36
0.02 0.03 0.08 0.06 0.05 0.07 0.09 0.09 0.10 0.11 0.09 0.07 0.06 0.05 0.05 0.04 0.03 0.03 0.04 0.04 0.04 0.06 0.05 0.06 0.07 0.07 0.07 0.06 0.05 0.04 0.05 0.07 0.11 0.17 0.22 0.21 0.24 0.31 0.42 0.49 0.68 0.43 0.30
0.03 0.03 0.05 0.07 0.07 0.08 0.09 0.10 0.11 0.12 0.11 0.09 0.08 0.07 0.07 0.05 0.04 0.04 0.04 0.04 0.04 0.04 0.04 0.04 0.05 0.05 0.05 0.04 0.04 0.03 0.05 0.10 0.19 0.29 0.46 0.38 0.22 0.33 0.40 0.46 0.47 0.36 0.29
0.06 0.03 0.03 0.06 0.08 0.07 0.08 0.10 0.11 0.11 0.10 0.10 0.12 0.11 0.10 0.05 0.05 0.04 0.04 0.04 0.05 0.04 0.03 0.03 0.03 0.03 0.03 0.03 0.04 0.04 0.07 0.12 0.24 0.49 0.79 0.46 0.24 0.26 0.33 0.35 0.33 0.33 0.27
0.06 0.05 0.05 0.06 0.07 0.08 0.09 0.11 0.13 0.12 0.11 0.11 0.16 0.16 0.13 0.08 0.08 0.07 0.05 0.04 0.05 0.05 0.03 0.03 0.03 0.03 0.02 0.03 0.04 0.05 0.09 0.13 0.24 0.48 0.51 0.48 0.48 0.28 0.27 0.32 0.31 0.31 0.24
0.08 0.06 0.08 0.09 0.09 0.09 0.10 0.11 0.15 0.17 0.14 0.14 0.16 0.15 0.14 0.11 0.13 0.11 0.06 0.05 0.06 0.06 0.05 0.04 0.03 0.03 0.03 0.03 0.04 0.06 0.09 0.16 0.31 0.34 0.32 0.32 0.40 0.33 0.29 0.41 0.46 0.42 0.31
0.10 0.07 0.09 0.11 0.11 0.09 0.09 0.10 0.12 0.15 0.16 0.18 0.18 0.14 0.11 0.08 0.08 0.08 0.07 0.06 0.06 0.06 0.06 0.05 0.04 0.04 0.05 0.05 0.05 0.06 0.11 0.20 0.30 0.26 0.27 0.37 0.42 0.30 0.38 0.61 0.74 0.66 0.51
0.14 0.11 0.13 0.15 0.14 0.13 0.11 0.11 0.11 0.11 0.12 0.12 0.13 0.11 0.08 0.07 0.10 0.11 0.10 0.07 0.07 0.07 0.07 0.07 0.06 0.07 0.07 0.06 0.07 0.08 0.12 0.16 0.16 0.19 0.24 0.35 0.29 0.26 0.50 0.73 0.88 0.86 0.77
0.17 0.14 0.15 0.16 0.15 0.16 0.18 0.15 0.14 0.14 0.14 0.16 0.16 0.14 0.12 0.11 0.11 0.13 0.15 0.14 0.14 0.14 0.14 0.12 0.10 0.09 0.10 0.09 0.08 0.09 0.12 0.16 0.21 0.24 0.28 0.35 0.28 0.43 0.81 0.94 0.93 0.96 0.93
0.29 0.25 0.20 0.19 0.20 0.17 0.16 0.18 0.18 0.18 0.18 0.17 0.17 0.15 0.15 0.15 0.16 0.19 0.19 0.20 0.24 0.27 0.27 0.21 0.19 0.17 0.16 0.14 0.12 0.13 0.14 0.17 0.19 0.24 0.34 0.31 0.33 0.60 0.98 1.12 1.13 1.09 1.03
0.39 0.34 0.31 0.25 0.25 0.24 0.20 0.19 0.24 0.26 0.25 0.23 0.26 0.25 0.25 0.30 0.37 0.42 0.41 0.47 0.46 0.49 0.50 0.45 0.42 0.40 0.36 0.25 0.27 0.31 0.26 0.21 0.22 0.27 0.31 0.29 0.42 0.69 1.01 1.16 1.19 1.19 1.09
0.50 0.46 0.44 0.41 0.34 0.32 0.32 0.39 0.46 0.42 0.43 0.41 0.54 0.59 0.62 0.75 0.73 0.53 0.60 0.83 0.95 1.03 0.99 0.95 0.92 0.77 0.66 0.58 0.88 1.03 0.39 0.30 0.29 0.33 0.40 0.46 0.67 0.94 1.24 1.21 1.15 1.16 1.08
0.63 0.57 0.56 0.55 0.53 0.51 0.61 0.54 0.59 0.69 0.78 0.76 0.80 0.86 0.93 0.95 0.81 0.70 0.80 1.04 1.30 1.39 1.29 1.51 1.54 1.15 1.17 1.29 1.25 1.14 0.67 0.70 0.65 0.64 0.67 0.83 1.04 1.33 1.74 1.58 1.30 1.16 1.08
0.82 0.72 0.85 0.72 0.75 0.90 0.92 0.70 0.68 0.75 0.83 0.91 1.09 1.11 1.18 1.30 1.23 1.17 1.20 1.26 1.46 1.62 1.81 1.87 1.95 1.79 1.72 1.65 1.58 1.38 1.16 1.17 1.09 1.31 1.35 1.24 1.27 1.47 1.95 1.94 1.56 1.31 1.14
1.23 1.09 1.02 1.02 1.09 1.20 1.09 1.00 0.92 1.01 1.05 1.09 1.16 1.28 1.31 1.52 1.62 1.61 1.52 1.48 1.49 1.63 1.79 1.90 1.96 2.26 2.36 2.03 1.66 1.51 1.47 1.52 1.40 1.49 1.48 1.41 1.31 1.38 1.69 1.94 1.84 1.64 1.38
1.57 1.55 1.36 1.27 1.39 1.49 1.50 1.52 1.50 1.33 1.34 1.34 1.30 1.30 1.38 1.57 1.74 1.82 1.73 1.69 1.58 1.61 1.76 1.93 2.10 2.50 2.50 2.32 1.86 1.66 1.60 1.55 1.42 1.39 1.49 1.68 1.48 1.33 1.39 1.61 1.82 1.81 1.68
1.81 1.81 1.74 1.74 1.92 1.99 1.97 1.94 1.85 1.70 1.62 1.58 1.58 1.57 1.55 1.60 1.71 1.70 1.56 1.52 1.58 1.72 1.85 1.89 2.08 2.37 2.07 2.04 1.80 1.72 1.54 1.35 1.22 1.20 1.38 1.54 1.42 1.34 1.40 1.48 1.59 1.65 1.72
1.97 2.08 2.24 2.27 2.29 2.27 2.30 2.31 2.20 2.05 1.91 1.77 1.71 1.74 1.63 1.57 1.59 1.69 1.53 1.45 1.77 1.90 1.96 2.09 2.22 2.22 2.11 2.06 1.86 1.62 1.45 1.35 1.10 1.03 1.05 1.12 1.22 1.08 1.28 1.44 1.45 1.48 1.62
2.41 2.62 2.86 2.87 2.75 2.59 2.56 2.52 2.44 2.28 2.05 1.85 1.71 1.67 1.55 1.54 1.63 1.85 1.77 1.82 2.08 2.14 2.13 2.05 2.28 2.26 2.12 2.07 1.89 1.60 1.29 1.16 1.01 0.89 0.82 0.77 0.86 0.92 0.99 1.12 1.23 1.30 1.60
2.73 2.98 2.98 2.99 3.19 3.07 2.90 2.70 2.45 2.07 1.82 1.77 1.74 1.59 1.57 1.63 1.76 2.01 1.85 1.86 2.04 2.13 2.09 2.03 1.99 2.05 1.87 1.86 1.77 1.47 1.15 0.88 0.82 0.71 0.60 0.59 0.62 0.62 0.73 0.91 1.12 0.99 1.25
2.59 2.82 3.05 3.21 3.27 3.09 2.81 2.53 2.30 2.10 1.97 1.78 1.69 1.61 1.57 1.56 1.63 1.88 1.78 1.88 1.92 1.88 1.86 1.91 1.90 1.76 1.49 1.71 1.74 1.32 0.92 0.73 0.69 0.51 0.49 0.50 0.48 0.51 0.65 0.84 1.02 1.02 0.96
2.32 2.65 2.89 3.13 3.16 2.91 2.58 2.37 2.25 2.16 1.86 1.63 1.62 1.59 1.60 1.68 1.67 1.74 1.77 1.76 1.79 1.79 1.69 1.66 1.74 1.57 1.32 1.50 1.58 1.49 0.96 0.74 0.61 0.47 0.53 0.59 0.61 0.67 0.69 0.75 0.90 1.02 1.03
1.96 2.16 2.34 2.44 2.38 2.21 2.15 2.14 2.12 2.09 1.83 1.76 1.83 1.86 1.84 1.86 1.83 1.82 1.75 1.63 1.51 1.46 1.39 1.41 1.50 1.48 1.33 1.33 1.52 1.68 1.30 0.92 0.82 0.64 0.64 0.65 0.74 0.81 0.78 0.81 0.85 0.98 1.07
1.77 1.96 2.13 2.07 1.89 1.73 1.76 1.90 1.96 1.90 1.86 2.01 2.22 2.12 1.89 1.74 1.61 1.45 1.32 1.30 1.27 1.25 1.15 1.10 1.20 1.24 1.17 1.11 1.24 1.40 1.47 1.43 1.30 0.85 0.61 0.58 0.70 0.80 0.87 0.81 0.75 0.84 1.00
1.45 1.60 1.75 1.82 1.71 1.63 1.61 1.67 1.78 1.78 1.76 1.76 1.75 1.71 1.58 1.41 1.22 1.05 0.98 0.98 0.97 0.96 0.91 0.87 0.89 0.91 0.95 0.95 1.08 1.24 1.34 1.40 1.39 1.25 0.88 0.82 0.83 0.77 0.80 0.81 0.83 0.84 0.88
1.15 1.17 1.17 1.28 1.33 1.35 1.37 1.40 1.43 1.41 1.34 1.26 1.18 1.15 1.07 0.98 0.82 0.70 0.66 0.70 0.75 0.81 0.80 0.77 0.79 0.78 0.84 0.95 0.98 1.09 1.22 1.22 1.22 1.30 1.09 0.98 0.92 0.82 0.82 0.86 0.86 0.93 0.92

GEFSSE_prec_meanprecacc_126.txt.gz
Total_Precipitation_Accumulation
0.05 0.05 0.11 0.08 0.04 0.06 0.09 0.09 0.09 0.09 0.07 0.06 0.06 0.05 0.03 0.03 0.02 0.03 0.03 0.04 0.05 0.06 0.07 0.10 0.11 0.12 0.13 0.12 0.11 0.10 0.10 0.10 0.14 0.18 0.23 0.22 0.23 0.34 0.53 0.60 0.68 0.51 0.39
0.02 0.03 0.08 0.06 0.05 0.07 0.09 0.10 0.11 0.11 0.10 0.07 0.06 0.05 0.05 0.04 0.03 0.03 0.04 0.05 0.05 0.06 0.06 0.07 0.08 0.09 0.09 0.08 0.07 0.07 0.09 0.13 0.17 0.24 0.26 0.24 0.26 0.36 0.46 0.52 0.70 0.45 0.33
0.04 0.03 0.06 0.07 0.07 0.08 0.09 0.10 0.11 0.13 0.12 0.10 0.08 0.08 0.08 0.06 0.04 0.04 0.04 0.05 0.05 0.05 0.04 0.05 0.06 0.06 0.06 0.06 0.06 0.06 0.09 0.16 0.27 0.36 0.50 0.39 0.24 0.38 0.45 0.51 0.50 0.39 0.33
0.07 0.03 0.03 0.06 0.08 0.08 0.09 0.10 0.12 0.12 0.11 0.11 0.13 0.13 0.10 0.06 0.05 0.04 0.04 0.04 0.05 0.05 0.04 0.04 0.04 0.04 0.04 0.04 0.05 0.07 0.13 0.22 0.35 0.57 0.82 0.47 0.25 0.29 0.36 0.38 0.36 0.34 0.29
0.07 0.05 0.05 0.06 0.07 0.08 0.10 0.11 0.13 0.13 0.11 0.12 0.16 0.17 0.14 0.08 0.09 0.08 0.06 0.05 0.05 0.05 0.04 0.03 0.03 0.04 0.03 0.04 0.06 0.09 0.15 0.24 0.41 0.58 0.54 0.49 0.49 0.31 0.29 0.34 0.34 0.33 0.25
0.09 0.06 0.08 0.09 0.09 0.09 0.10 0.11 0.16 0.18 0.15 0.16 0.17 0.16 0.15 0.12 0.14 0.12 0.07 0.06 0.06 0.06 0.06 0.04 0.03 0.03 0.04 0.04 0.06 0.09 0.15 0.27 0.43 0.41 0.35 0.34 0.40 0.34 0.30 0.43 0.48 0.43 0.32
0.13 0.08 0.09 0.11 0.11 0.09 0.09 0.10 0.13 0.16 0.17 0.20 0.19 0.15 0.12 0.09 0.09 0.08 0.07 0.07 0.06 0.06 0.06 0.05 0.05 0.05 0.06 0.06 0.08 0.10 0.18 0.32 0.39 0.35 0.32 0.39 0.43 0.32 0.40 0.62 0.75 0.67 0.52
0.18 0.12 0.13 0.15 0.14 0.13 0.12 0.12 0.12 0.12 0.13 0.14 0.15 0.12 0.09 0.08 0.10 0.12 0.10 0.08 0.07 0.07 0.07 0.07 0.07 0.07 0.09 0.09 0.10 0.13 0.18 0.24 0.23 0.26 0.29 0.37 0.30 0.27 0.52 0.74 0.89 0.87 0.78
0.30 0.16 0.15 0.16 0.15 0.16 0.19 0.16 0.15 0.15 0.16 0.17 0.17 0.14 0.13 0.12 0.12 0.13 0.16 0.14 0.14 0.14 0.14 0.12 0.10 0.09 0.11 0.11 0.11 0.13 0.18 0.24 0.30 0.34 0.33 0.37 0.30 0.44 0.83 0.95 0.95 0.97 0.94
0.62 0.34 0.22 0.20 0.20 0.17 0.16 0.19 0.19 0.20 0.20 0.18 0.17 0.16 0.16 0.16 0.18 0.20 0.20 0.21 0.24 0.28 0.28 0.22 0.19 0.18 0.17 0.15 0.15 0.17 0.20 0.25 0.36 0.40 0.41 0.35 0.36 0.62 0.98 1.12 1.14 1.10 1.03
0.72 0.49 0.38 0.28 0.26 0.24 0.20 0.20 0.26 0.28 0.27 0.24 0.27 0.26 0.26 0.31 0.39 0.44 0.42 0.49 0.48 0.50 0.50 0.46 0.42 0.41 0.37 0.26 0.29 0.35 0.31 0.32 0.45 0.45 0.41 0.34 0.46 0.71 1.03 1.17 1.20 1.19 1.10
0.86 0.67 0.54 0.45 0.36 0.32 0.32 0.40 0.47 0.43 0.45 0.43 0.56 0.60 0.63 0.76 0.75 0.56 0.63 0.86 0.97 1.05 1.00 0.96 0.93 0.78 0.67 0.59 0.91 1.07 0.45 0.44 0.56 0.53 0.50 0.53 0.73 0.98 1.26 1.23 1.16 1.17 1.09
1.15 0.93 0.78 0.68 0.59 0.54 0.63 0.55 0.60 0.70 0.79 0.77 0.82 0.88 0.95 0.97 0.83 0.72 0.83 1.06 1.31 1.40 1.29 1.52 1.55 1.16 1.19 1.33 1.29 1.19 0.75 0.86 0.88 0.84 0.75 0.92 1.11 1.38 1.77 1.61 1.32 1.18 1.09
1.27 1.19 1.19 0.99 0.88 1.00 0.98 0.73 0.70 0.76 0.84 0.93 1.11 1.14 1.21 1.34 1.26 1.20 1.23 1.28 1.46 1.63 1.82 1.88 1.96 1.81 1.76 1.70 1.63 1.43 1.23 1.26 1.23 1.43 1.41 1.31 1.35 1.55 2.00 1.98 1.59 1.33 1.15
1.57 1.51 1.45 1.41 1.31 1.38 1.19 1.05 0.96 1.03 1.08 1.11 1.19 1.31 1.34 1.55 1.66 1.64 1.56 1.51 1.51 1.65 1.80 1.91 1.97 2.28 2.39 2.06 1.71 1.55 1.51 1.56 1.46 1.55 1.54 1.47 1.37 1.45 1.76 2.00 1.88 1.68 1.41
1.92 1.92 1.73 1.66 1.65 1.64 1.59 1.60 1.55 1.37 1.37 1.37 1.33 1.33 1.41 1.59 1.77 1.84 1.75 1.70 1.61 1.62 1.77 1.93 2.11 2.51 2.51 2.33 1.88 1.69 1.63 1.57 1.44 1.41 1.51 1.71 1.53 1.39 1.45 1.68 1.89 1.88 1.75
2.23 2.20 2.14 2.08 2.19 2.17 2.09 2.06 1.92 1.75 1.66 1.62 1.64 1.63 1.60 1.63 1.73 1.72 1.58 1.53 1.58 1.73 1.86 1.90 2.09 2.37 2.08 2.05 1.81 1.74 1.57 1.37 1.23 1.22 1.39 1.55 1.44 1.39 1.45 1.54 1.67 1.74 1.82
2.39 2.46 2.53 2.53 2.53 2.42 2.42 2.45 2.31 2.12 1.96 1.82 1.74 1.77 1.67 1.60 1.60 1.71 1.55 1.46 1.78 1.91 1.98 2.11 2.23 2.22 2.11 2.06 1.87 1.64 1.47 1.37 1.12 1.04 1.06 1.13 1.23 1.10 1.32 1.49 1.51 1.55 1.71
2.80 2.98 3.08 3.07 2.94 2.73 2.67 2.64 2.56 2.38 2.13 1.89 1.76 1.71 1.58 1.56 1.65 1.87 1.79 1.84 2.09 2.15 2.13 2.06 2.29 2.27 2.12 2.07 1.89 1.61 1.30 1.17 1.02 0.90 0.83 0.78 0.87 0.93 1.01 1.16 1.28 1.36 1.66
3.17 3.39 3.24 3.16 3.34 3.19 3.00 2.81 2.55 2.16 1.90 1.84 1.79 1.63 1.61 1.66 1.79 2.04 1.88 1.87 2.05 2.14 2.10 2.05 2.00 2.06 1.87 1.86 1.78 1.48 1.15 0.88 0.82 0.72 0.61 0.60 0.63 0.63 0.75 0.93 1.14 1.03 1.31
3.02 3.28 3.50 3.50 3.43 3.21 2.90 2.62 2.38 2.17 2.04 1.84 1.72 1.63 1.59 1.58 1.66 1.92 1.80 1.89 1.93 1.88 1.87 1.93 1.92 1.77 1.50 1.72 1.75 1.33 0.93 0.74 0.70 0.52 0.50 0.50 0.48 0.52 0.66 0.86 1.03 1.04 0.99
2.69 3.01 3.26 3.46 3.37 3.05 2.68 2.44 2.31 2.22 1.92 1.67 1.65 1.61 1.61 1.70 1.71 1.77 1.79 1.77 1.80 1.79 1.69 1.68 1.75 1.58 1.33 1.51 1.58 1.49 0.97 0.74 0.61 0.47 0.53 0.59 0.61 0.67 0.70 0.77 0.91 1.02 1.03
2.32 2.43 2.54 2.67 2.58 2.36 2.27 2.23 2.19 2.16 1.89 1.80 1.86 1.88 1.85 1.90 1.86 1.84 1.76 1.63 1.51 1.46 1.40 1.43 1.52 1.49 1.33 1.33 1.52 1.68 1.30 0.93 0.82 0.65 0.64 0.65 0.74 0.81 0.78 0.81 0.86 0.98 1.08
2.01 2.17 2.28 2.27 2.09 1.85 1.85 1.98 2.02 1.94 1.89 2.04 2.25 2.15 1.93 1.77 1.64 1.47 1.33 1.31 1.27 1.25 1.16 1.10 1.21 1.25 1.17 1.12 1.24 1.40 1.47 1.43 1.30 0.85 0.61 0.58 0.70 0.80 0.87 0.81 0.75 0.84 1.01
1.61 1.76 1.90 1.99 1.89 1.74 1.70 1.75 1.85 1.83 1.79 1.79 1.78 1.74 1.61 1.44 1.24 1.07 0.99 0.98 0.98 0.97 0.92 0.88 0.90 0.91 0.95 0.95 1.08 1.25 1.34 1.40 1.39 1.25 0.88 0.82 0.83 0.77 0.80 0.81 0.83 0.84 0.88
1.26 1.28 1.28 1.42 1.48 1.46 1.45 1.47 1.49 1.46 1.39 1.30 1.20 1.17 1.09 1.00 0.83 0.70 0.67 0.70 0.75 0.81 0.80 0.78 0.80 0.79 0.84 0.95 0.98 1.09 1.22 1.22 1.22 1.30 1.09 0.98 0.93 0.82 0.82 0.86 0.86 0.93 0.92

GEFSSE_prec_meanprecacc_132.txt.gz
Total_Precipitation_Accumulation
0.06 0.06 0.13 0.09 0.05 0.08 0.10 0.10 0.09 0.09 0.07 0.06 0.06 0.05 0.03 0.03 0.02 0.03 0.03 0.04 0.05 0.07 0.09 0.12 0.14 0.15 0.16 0.14 0.13 0.13 0.13 0.13 0.18 0.25 0.28 0.27 0.29 0.41 0.60 0.65 0.70 0.53 0.43
0.02 0.03 0.09 0.07 0.05 0.07 0.10 0.10 0.12 0.12 0.10 0.08 0.06 0.05 0.05 0.04 0.03 0.04 0.05 0.05 0.06 0.07 0.07 0.08 0.11 0.11 0.11 0.09 0.09 0.09 0.12 0.18 0.26 0.35 0.35 0.31 0.33 0.44 0.54 0.55 0.71 0.47 0.37
0.04 0.03 0.07 0.08 0.07 0.08 0.10 0.10 0.12 0.13 0.12 0.10 0.09 0.08 0.08 0.06 0.05 0.04 0.05 0.06 0.06 0.06 0.05 0.06 0.08 0.08 0.07 0.07 0.07 0.08 0.12 0.22 0.35 0.47 0.58 0.44 0.28 0.43 0.50 0.54 0.52 0.42 0.37
0.07 0.04 0.03 0.07 0.08 0.08 0.09 0.11 0.12 0.12 0.12 0.11 0.13 0.13 0.11 0.06 0.06 0.05 0.05 0.05 0.06 0.07 0.05 0.05 0.06 0.05 0.05 0.05 0.08 0.11 0.16 0.27 0.41 0.61 0.84 0.49 0.27 0.32 0.41 0.42 0.39 0.37 0.32
0.08 0.05 0.05 0.07 0.08 0.09 0.10 0.12 0.13 0.13 0.12 0.12 0.17 0.17 0.15 0.09 0.09 0.09 0.07 0.06 0.06 0.06 0.05 0.04 0.05 0.04 0.04 0.05 0.08 0.14 0.20 0.30 0.45 0.60 0.55 0.50 0.50 0.34 0.32 0.37 0.37 0.35 0.27
0.10 0.07 0.09 0.10 0.09 0.09 0.11 0.12 0.16 0.19 0.16 0.16 0.17 0.16 0.15 0.12 0.14 0.12 0.08 0.07 0.07 0.07 0.06 0.05 0.05 0.04 0.05 0.06 0.09 0.14 0.21 0.35 0.46 0.42 0.36 0.34 0.41 0.37 0.33 0.46 0.50 0.45 0.34
0.14 0.08 0.10 0.12 0.12 0.10 0.10 0.11 0.13 0.16 0.18 0.20 0.20 0.16 0.13 0.10 0.10 0.09 0.07 0.07 0.07 0.06 0.06 0.06 0.05 0.06 0.07 0.08 0.11 0.15 0.24 0.39 0.40 0.35 0.32 0.39 0.44 0.34 0.42 0.63 0.77 0.68 0.54
0.20 0.14 0.14 0.17 0.15 0.13 0.12 0.12 0.12 0.13 0.14 0.14 0.15 0.13 0.10 0.09 0.11 0.13 0.11 0.08 0.07 0.07 0.07 0.07 0.08 0.08 0.10 0.11 0.13 0.17 0.23 0.28 0.24 0.26 0.29 0.37 0.31 0.30 0.54 0.76 0.90 0.88 0.79
0.36 0.22 0.20 0.19 0.17 0.17 0.20 0.17 0.17 0.16 0.17 0.17 0.17 0.15 0.14 0.13 0.13 0.14 0.17 0.14 0.14 0.15 0.14 0.13 0.11 0.10 0.12 0.12 0.14 0.17 0.22 0.28 0.32 0.35 0.33 0.38 0.31 0.47 0.85 0.97 0.96 0.97 0.94
0.73 0.46 0.29 0.23 0.22 0.19 0.18 0.21 0.21 0.22 0.21 0.19 0.18 0.17 0.18 0.17 0.19 0.21 0.21 0.22 0.25 0.28 0.28 0.22 0.20 0.18 0.17 0.16 0.17 0.20 0.24 0.29 0.38 0.40 0.42 0.36 0.39 0.65 1.00 1.14 1.15 1.11 1.04
0.83 0.61 0.46 0.35 0.30 0.27 0.22 0.22 0.27 0.29 0.28 0.26 0.28 0.27 0.27 0.32 0.40 0.45 0.43 0.50 0.49 0.51 0.51 0.46 0.43 0.42 0.38 0.27 0.31 0.37 0.33 0.33 0.46 0.45 0.42 0.35 0.49 0.75 1.05 1.18 1.21 1.20 1.11
0.98 0.79 0.63 0.52 0.41 0.36 0.34 0.41 0.48 0.44 0.46 0.44 0.57 0.61 0.63 0.77 0.76 0.56 0.64 0.87 0.98 1.06 1.01 0.97 0.94 0.79 0.68 0.59 0.92 1.08 0.47 0.46 0.57 0.54 0.51 0.55 0.76 1.01 1.29 1.25 1.18 1.19 1.10
1.37 1.10 0.89 0.77 0.65 0.58 0.65 0.57 0.61 0.71 0.80 0.78 0.83 0.89 0.95 0.98 0.85 0.73 0.83 1.07 1.32 1.41 1.30 1.53 1.56 1.17 1.20 1.34 1.31 1.20 0.77 0.89 0.89 0.85 0.76 0.95 1.15 1.42 1.81 1.64 1.35 1.21 1.12
1.56 1.41 1.37 1.13 0.98 1.06 1.03 0.76 0.72 0.77 0.85 0.94 1.12 1.16 1.22 1.35 1.28 1.22 1.24 1.30 1.48 1.64 1.83 1.89 1.97 1.82 1.77 1.71 1.64 1.45 1.25 1.28 1.26 1.44 1.43 1.35 1.39 1.60 2.05 2.03 1.63 1.36 1.19
1.74 1.65 1.62 1.56 1.41 1.46 1.25 1.10 0.99 1.05 1.09 1.12 1.19 1.33 1.35 1.56 1.68 1.66 1.58 1.55 1.55 1.67 1.81 1.92 1.98 2.29 2.40 2.08 1.72 1.56 1.52 1.58 1.48 1.57 1.55 1.51 1.42 1.50 1.82 2.06 1.95 1.74 1.46
2.11 2.06 1.89 1.82 1.78 1.74 1.67 1.66 1.59 1.40 1.40 1.38 1.34 1.34 1.43 1.61 1.79 1.88 1.79 1.73 1.64 1.65 1.79 1.95 2.12 2.52 2.52 2.34 1.89 1.70 1.64 1.58 1.46 1.42 1.52 1.73 1.58 1.44 1.52 1.77 1.98 1.98 1.85
2.49 2.44 2.41 2.36 2.42 2.33 2.19 2.14 1.99 1.79 1.69 1.65 1.66 1.65 1.61 1.65 1.75 1.75 1.61 1.55 1.60 1.76 1.88 1.91 2.09 2.38 2.09 2.05 1.82 1.76 1.58 1.38 1.24 1.23 1.39 1.56 1.46 1.43 1.52 1.63 1.78 1.86 1.94
2.63 2.71 2.82 2.89 2.83 2.61 2.55 2.55 2.38 2.17 2.01 1.85 1.77 1.81 1.70 1.63 1.63 1.74 1.58 1.49 1.80 1.93 1.99 2.13 2.24 2.23 2.12 2.07 1.88 1.65 1.48 1.38 1.13 1.05 1.06 1.13 1.24 1.13 1.38 1.58 1.61 1.65 1.82
3.04 3.21 3.34 3.28 3.15 2.91 2.83 2.77 2.66 2.46 2.19 1.95 1.80 1.76 1.62 1.59 1.69 1.90 1.82 1.88 2.12 2.17 2.15 2.07 2.30 2.27 2.12 2.07 1.90 1.62 1.32 1.18 1.03 0.91 0.84 0.79 0.88 0.95 1.03 1.20 1.35 1.43 1.74
3.45 3.70 3.53 3.39 3.52 3.35 3.16 2.97 2.68 2.28 1.99 1.90 1.85 1.68 1.65 1.70 1.82 2.06 1.91 1.91 2.08 2.16 2.11 2.06 2.01 2.06 1.87 1.87 1.78 1.48 1.16 0.89 0.83 0.73 0.62 0.60 0.63 0.64 0.76 0.95 1.16 1.06 1.37
3.41 3.68 3.83 3.77 3.64 3.38 3.03 2.74 2.48 2.26 2.12 1.90 1.77 1.68 1.63 1.62 1.70 1.95 1.83 1.91 1.94 1.90 1.88 1.94 1.92 1.78 1.50 1.72 1.75 1.33 0.93 0.74 0.70 0.52 0.51 0.51 0.49 0.53 0.67 0.86 1.04 1.05 1.01
3.07 3.43 3.64 3.80 3.65 3.25 2.82 2.56 2.41 2.34 2.03 1.74 1.70 1.65 1.64 1.74 1.74 1.79 1.81 1.79 1.81 1.81 1.71 1.69 1.76 1.59 1.34 1.51 1.58 1.49 0.97 0.74 0.62 0.48 0.54 0.59 0.62 0.68 0.71 0.78 0.92 1.03 1.04
2.68 2.86 2.91 3.02 2.92 2.62 2.46 2.38 2.33 2.28 1.99 1.86 1.90 1.90 1.87 1.92 1.88 1.86 1.77 1.65 1.52 1.48 1.41 1.44 1.53 1.50 1.34 1.34 1.53 1.68 1.30 0.93 0.82 0.65 0.64 0.65 0.74 0.82 0.79 0.82 0.87 0.99 1.09
2.32 2.50 2.58 2.53 2.39 2.14 2.07 2.11 2.10 2.00 1.94 2.08 2.29 2.18 1.96 1.79 1.65 1.48 1.34 1.32 1.27 1.26 1.16 1.11 1.22 1.26 1.17 1.12 1.25 1.40 1.47 1.43 1.30 0.85 0.61 0.59 0.70 0.80 0.87 0.82 0.76 0.85 1.02
1.85 2.01 2.11 2.15 2.13 1.99 1.90 1.88 1.94 1.88 1.84 1.83 1.81 1.76 1.63 1.45 1.25 1.08 0.99 0.99 0.98 0.97 0.92 0.88 0.91 0.92 0.95 0.96 1.09 1.25 1.35 1.40 1.39 1.25 0.88 0.82 0.83 0.77 0.81 0.81 0.83 0.84 0.88
1.40 1.42 1.40 1.52 1.65 1.65 1.60 1.59 1.59 1.53 1.44 1.34 1.23 1.18 1.10 1.00 0.84 0.72 0.68 0.70 0.76 0.82 0.81 0.79 0.80 0.79 0.85 0.96 1.00 1.10 1.23 1.22 1.23 1.30 1.09 0.98 0.93 0.82 0.82 0.86 0.86 0.93 0.92

GEFSSE_prec_meanprecacc_138.txt.gz
Total_Precipitation_Accumulation
0.06 0.06 0.15 0.11 0.07 0.10 0.13 0.12 0.12 0.10 0.08 0.07 0.07 0.05 0.04 0.03 0.03 0.04 0.04 0.05 0.06 0.09 0.11 0.14 0.16 0.18 0.19 0.18 0.18 0.16 0.16 0.15 0.21 0.29 0.34 0.33 0.35 0.47 0.66 0.71 0.76 0.55 0.46
0.02 0.04 0.10 0.09 0.07 0.10 0.12 0.12 0.13 0.13 0.11 0.08 0.07 0.06 0.05 0.05 0.04 0.05 0.06 0.07 0.06 0.08 0.08 0.10 0.12 0.13 0.14 0.12 0.12 0.12 0.15 0.22 0.30 0.41 0.40 0.35 0.37 0.48 0.58 0.59 0.76 0.50 0.40
0.04 0.04 0.07 0.09 0.09 0.10 0.12 0.12 0.13 0.14 0.13 0.10 0.09 0.08 0.09 0.07 0.06 0.06 0.07 0.07 0.07 0.07 0.06 0.07 0.09 0.09 0.10 0.10 0.09 0.11 0.16 0.27 0.42 0.53 0.63 0.47 0.30 0.47 0.54 0.56 0.54 0.44 0.39
0.07 0.04 0.04 0.07 0.10 0.10 0.11 0.13 0.13 0.13 0.13 0.11 0.14 0.13 0.11 0.07 0.07 0.06 0.06 0.07 0.07 0.07 0.06 0.06 0.07 0.06 0.06 0.07 0.10 0.14 0.21 0.32 0.45 0.65 0.87 0.51 0.28 0.35 0.44 0.45 0.41 0.39 0.34
0.08 0.05 0.06 0.08 0.09 0.10 0.12 0.13 0.14 0.14 0.13 0.13 0.17 0.18 0.15 0.10 0.10 0.10 0.08 0.07 0.07 0.07 0.06 0.05 0.05 0.05 0.05 0.06 0.10 0.17 0.24 0.33 0.48 0.61 0.57 0.53 0.53 0.37 0.35 0.40 0.39 0.38 0.30
0.10 0.07 0.09 0.10 0.10 0.10 0.11 0.13 0.17 0.19 0.17 0.16 0.17 0.17 0.16 0.13 0.15 0.14 0.09 0.08 0.08 0.08 0.07 0.06 0.06 0.06 0.05 0.07 0.11 0.18 0.25 0.37 0.47 0.43 0.37 0.37 0.43 0.39 0.35 0.48 0.52 0.47 0.37
0.14 0.08 0.10 0.13 0.12 0.11 0.10 0.11 0.14 0.17 0.18 0.21 0.20 0.16 0.14 0.11 0.11 0.11 0.09 0.08 0.08 0.08 0.08 0.07 0.07 0.08 0.09 0.11 0.14 0.19 0.29 0.42 0.41 0.35 0.33 0.42 0.46 0.36 0.44 0.66 0.79 0.70 0.56
0.21 0.15 0.16 0.18 0.16 0.14 0.13 0.13 0.13 0.13 0.14 0.15 0.16 0.14 0.11 0.10 0.12 0.14 0.12 0.09 0.09 0.09 0.09 0.09 0.09 0.10 0.13 0.15 0.17 0.20 0.27 0.30 0.24 0.26 0.30 0.39 0.34 0.32 0.56 0.77 0.92 0.90 0.81
0.37 0.25 0.23 0.21 0.19 0.19 0.21 0.18 0.17 0.17 0.17 0.18 0.18 0.16 0.15 0.14 0.15 0.16 0.19 0.16 0.15 0.16 0.15 0.14 0.11 0.12 0.15 0.16 0.18 0.22 0.26 0.30 0.33 0.35 0.34 0.40 0.34 0.50 0.87 0.99 0.98 1.00 0.96
0.76 0.50 0.34 0.27 0.26 0.22 0.20 0.22 0.22 0.23 0.22 0.20 0.19 0.18 0.19 0.19 0.20 0.22 0.23 0.23 0.26 0.29 0.29 0.23 0.21 0.20 0.20 0.20 0.22 0.26 0.29 0.32 0.40 0.41 0.43 0.37 0.41 0.68 1.03 1.16 1.18 1.13 1.05
0.92 0.70 0.55 0.40 0.34 0.30 0.25 0.24 0.29 0.31 0.30 0.28 0.30 0.28 0.30 0.34 0.42 0.47 0.45 0.51 0.50 0.51 0.52 0.47 0.44 0.44 0.40 0.31 0.36 0.43 0.37 0.35 0.49 0.47 0.43 0.36 0.51 0.79 1.09 1.22 1.24 1.23 1.13
1.07 0.90 0.74 0.59 0.47 0.41 0.38 0.46 0.54 0.48 0.50 0.47 0.60 0.64 0.67 0.80 0.78 0.58 0.65 0.89 0.99 1.06 1.02 0.97 0.96 0.81 0.69 0.61 0.94 1.12 0.50 0.47 0.59 0.55 0.52 0.56 0.78 1.06 1.34 1.29 1.22 1.23 1.13
1.45 1.22 0.98 0.84 0.71 0.62 0.70 0.62 0.67 0.76 0.84 0.82 0.86 0.92 0.99 1.00 0.86 0.74 0.86 1.11 1.35 1.43 1.32 1.54 1.57 1.18 1.21 1.36 1.33 1.22 0.79 0.90 0.91 0.87 0.78 0.97 1.18 1.47 1.86 1.68 1.38 1.24 1.16
1.64 1.51 1.45 1.21 1.05 1.11 1.08 0.81 0.76 0.81 0.88 0.96 1.15 1.19 1.25 1.37 1.29 1.23 1.28 1.35 1.52 1.68 1.87 1.91 1.99 1.83 1.78 1.71 1.66 1.47 1.27 1.29 1.27 1.47 1.46 1.37 1.42 1.65 2.12 2.09 1.68 1.41 1.24
1.82 1.74 1.71 1.64 1.48 1.52 1.31 1.16 1.03 1.09 1.12 1.15 1.22 1.36 1.38 1.59 1.70 1.68 1.61 1.59 1.58 1.71 1.85 1.95 1.99 2.30 2.41 2.09 1.73 1.57 1.53 1.60 1.49 1.59 1.58 1.54 1.45 1.56 1.90 2.13 2.00 1.79 1.51
2.21 2.17 1.97 1.90 1.87 1.83 1.75 1.73 1.64 1.45 1.44 1.42 1.38 1.38 1.47 1.64 1.82 1.91 1.82 1.77 1.67 1.68 1.82 1.97 2.14 2.54 2.53 2.36 1.90 1.71 1.65 1.59 1.47 1.44 1.55 1.77 1.61 1.48 1.57 1.83 2.03 2.03 1.90
2.63 2.58 2.52 2.46 2.52 2.44 2.28 2.22 2.04 1.85 1.74 1.68 1.69 1.70 1.65 1.69 1.80 1.80 1.65 1.59 1.64 1.78 1.90 1.93 2.12 2.40 2.10 2.06 1.83 1.76 1.59 1.39 1.25 1.24 1.42 1.60 1.51 1.47 1.56 1.67 1.83 1.92 2.01
2.80 2.87 2.97 3.02 2.94 2.73 2.66 2.62 2.44 2.23 2.06 1.91 1.84 1.87 1.76 1.68 1.69 1.81 1.62 1.52 1.84 1.95 2.01 2.15 2.26 2.25 2.13 2.09 1.89 1.65 1.49 1.39 1.14 1.06 1.08 1.16 1.28 1.17 1.41 1.61 1.65 1.69 1.88
3.20 3.37 3.49 3.44 3.27 3.03 2.94 2.85 2.72 2.53 2.27 2.03 1.88 1.83 1.69 1.67 1.76 1.97 1.88 1.94 2.16 2.20 2.17 2.09 2.31 2.29 2.15 2.10 1.91 1.62 1.32 1.19 1.04 0.92 0.85 0.81 0.90 0.98 1.06 1.23 1.37 1.45 1.79
3.61 3.89 3.71 3.54 3.63 3.46 3.28 3.06 2.75 2.35 2.07 1.99 1.92 1.76 1.73 1.77 1.88 2.13 1.97 1.96 2.11 2.19 2.14 2.09 2.03 2.08 1.89 1.89 1.79 1.49 1.16 0.89 0.84 0.74 0.63 0.62 0.66 0.66 0.78 0.96 1.18 1.09 1.39
3.53 3.86 4.03 3.96 3.78 3.50 3.12 2.80 2.53 2.33 2.20 2.00 1.86 1.76 1.72 1.69 1.76 2.02 1.89 1.96 1.99 1.95 1.94 1.99 1.96 1.81 1.52 1.73 1.77 1.35 0.94 0.75 0.71 0.53 0.51 0.52 0.50 0.54 0.68 0.88 1.06 1.06 1.03
3.17 3.59 3.83 3.99 3.83 3.39 2.93 2.64 2.49 2.43 2.12 1.84 1.80 1.76 1.73 1.82 1.80 1.85 1.87 1.85 1.87 1.87 1.77 1.75 1.81 1.62 1.36 1.52 1.60 1.51 0.98 0.75 0.62 0.48 0.54 0.60 0.62 0.69 0.72 0.79 0.93 1.05 1.06
2.74 2.99 3.08 3.19 3.11 2.80 2.62 2.52 2.44 2.40 2.09 1.95 1.99 1.99 1.95 1.98 1.93 1.91 1.84 1.72 1.58 1.52 1.45 1.49 1.57 1.53 1.37 1.35 1.54 1.70 1.32 0.94 0.83 0.65 0.64 0.65 0.74 0.82 0.80 0.83 0.88 1.01 1.11
2.37 2.60 2.73 2.70 2.57 2.32 2.23 2.24 2.21 2.10 2.03 2.16 2.37 2.26 2.03 1.85 1.71 1.54 1.40 1.38 1.33 1.30 1.21 1.14 1.25 1.29 1.20 1.15 1.27 1.41 1.48 1.43 1.31 0.85 0.62 0.59 0.70 0.80 0.87 0.82 0.76 0.86 1.02
1.93 2.12 2.27 2.34 2.33 2.16 2.06 2.02 2.06 1.99 1.96 1.94 1.90 1.83 1.69 1.52 1.31 1.12 1.03 1.03 1.03 1.02 0.96 0.92 0.94 0.95 0.97 0.98 1.11 1.27 1.36 1.41 1.40 1.26 0.89 0.83 0.84 0.77 0.81 0.81 0.83 0.84 0.88
1.48 1.52 1.56 1.67 1.81 1.80 1.74 1.73 1.72 1.64 1.55 1.45 1.30 1.24 1.16 1.05 0.88 0.75 0.70 0.75 0.81 0.87 0.85 0.82 0.82 0.81 0.87 0.98 1.01 1.11 1.24 1.23 1.24 1.31 1.10 0.98 0.93 0.82 0.82 0.86 0.86 0.93 0.92

GEFSSE_prec_meanprecacc_144.txt.gz
Total_Precipitation_Accumulation
0.06 0.06 0.15 0.11 0.08 0.11 0.14 0.13 0.13 0.12 0.09 0.08 0.07 0.06 0.04 0.04 0.03 0.05 0.05 0.06 0.07 0.11 0.13 0.17 0.18 0.21 0.22 0.21 0.22 0.19 0.19 0.17 0.23 0.32 0.36 0.36 0.38 0.51 0.74 0.82 0.87 0.58 0.48
0.02 0.04 0.10 0.09 0.08 0.10 0.13 0.14 0.15 0.15 0.12 0.09 0.08 0.06 0.06 0.05 0.05 0.06 0.07 0.08 0.08 0.11 0.11 0.13 0.16 0.17 0.18 0.16 0.16 0.15 0.19 0.24 0.33 0.45 0.44 0.39 0.40 0.54 0.68 0.70 0.87 0.53 0.43
0.04 0.04 0.07 0.10 0.09 0.11 0.13 0.14 0.15 0.16 0.14 0.11 0.10 0.09 0.09 0.07 0.07 0.08 0.09 0.09 0.09 0.10 0.09 0.11 0.13 0.13 0.13 0.12 0.12 0.16 0.21 0.31 0.48 0.62 0.76 0.52 0.32 0.52 0.62 0.64 0.58 0.47 0.44
0.07 0.04 0.04 0.08 0.11 0.11 0.12 0.14 0.15 0.15 0.14 0.12 0.15 0.15 0.13 0.08 0.08 0.08 0.09 0.09 0.10 0.10 0.09 0.09 0.10 0.09 0.10 0.10 0.12 0.18 0.26 0.38 0.54 0.83 1.01 0.53 0.29 0.37 0.47 0.49 0.44 0.42 0.39
0.08 0.05 0.06 0.08 0.09 0.11 0.12 0.14 0.16 0.15 0.14 0.14 0.18 0.19 0.17 0.11 0.11 0.11 0.10 0.09 0.10 0.10 0.09 0.08 0.08 0.08 0.07 0.09 0.13 0.21 0.27 0.37 0.57 0.77 0.63 0.57 0.55 0.39 0.37 0.42 0.42 0.41 0.34
0.10 0.07 0.09 0.10 0.10 0.11 0.12 0.14 0.18 0.21 0.18 0.17 0.18 0.18 0.18 0.15 0.17 0.15 0.10 0.09 0.10 0.11 0.10 0.09 0.08 0.08 0.08 0.10 0.15 0.21 0.28 0.42 0.57 0.48 0.41 0.41 0.45 0.40 0.38 0.51 0.54 0.49 0.42
0.14 0.09 0.11 0.14 0.12 0.11 0.11 0.13 0.15 0.19 0.20 0.22 0.22 0.17 0.15 0.13 0.12 0.12 0.10 0.10 0.10 0.10 0.10 0.09 0.09 0.11 0.11 0.13 0.16 0.21 0.31 0.46 0.49 0.38 0.39 0.46 0.47 0.37 0.46 0.69 0.82 0.73 0.60
0.22 0.16 0.17 0.19 0.17 0.15 0.14 0.14 0.15 0.15 0.16 0.16 0.17 0.15 0.12 0.11 0.14 0.16 0.14 0.11 0.10 0.10 0.10 0.10 0.10 0.12 0.15 0.16 0.19 0.22 0.30 0.34 0.27 0.28 0.32 0.41 0.34 0.33 0.57 0.79 0.94 0.93 0.84
0.39 0.26 0.24 0.23 0.20 0.20 0.23 0.20 0.19 0.19 0.19 0.19 0.19 0.18 0.16 0.16 0.16 0.18 0.20 0.18 0.17 0.17 0.17 0.15 0.12 0.12 0.16 0.18 0.20 0.23 0.28 0.34 0.35 0.38 0.37 0.40 0.35 0.51 0.88 1.00 1.00 1.02 0.97
0.78 0.52 0.38 0.31 0.30 0.25 0.22 0.24 0.24 0.24 0.24 0.21 0.20 0.19 0.21 0.21 0.21 0.23 0.24 0.24 0.27 0.30 0.31 0.25 0.22 0.21 0.21 0.20 0.23 0.27 0.30 0.34 0.44 0.48 0.46 0.37 0.41 0.68 1.03 1.17 1.19 1.15 1.06
0.95 0.74 0.60 0.46 0.39 0.34 0.28 0.27 0.33 0.33 0.32 0.30 0.32 0.30 0.32 0.39 0.45 0.50 0.46 0.52 0.51 0.52 0.52 0.48 0.45 0.44 0.41 0.31 0.36 0.44 0.40 0.39 0.54 0.55 0.46 0.37 0.51 0.79 1.09 1.23 1.26 1.24 1.14
1.10 0.95 0.82 0.65 0.50 0.44 0.43 0.52 0.62 0.55 0.54 0.52 0.64 0.67 0.74 0.89 0.88 0.63 0.68 0.91 1.01 1.07 1.02 0.98 0.97 0.81 0.70 0.63 0.95 1.14 0.56 0.53 0.61 0.57 0.54 0.57 0.79 1.06 1.34 1.30 1.23 1.25 1.15
1.50 1.28 1.08 0.92 0.75 0.66 0.78 0.71 0.75 0.85 0.92 0.91 0.94 0.98 1.08 1.08 0.91 0.78 0.89 1.13 1.37 1.45 1.35 1.56 1.59 1.21 1.25 1.42 1.40 1.26 0.83 0.95 0.94 0.90 0.80 0.98 1.18 1.47 1.86 1.68 1.39 1.25 1.17
1.71 1.58 1.52 1.30 1.12 1.18 1.13 0.88 0.82 0.86 0.94 1.05 1.25 1.25 1.32 1.45 1.36 1.30 1.34 1.40 1.55 1.73 1.92 1.94 2.03 1.88 1.81 1.73 1.69 1.52 1.30 1.32 1.32 1.49 1.47 1.37 1.43 1.66 2.13 2.11 1.69 1.42 1.24
1.88 1.83 1.79 1.73 1.57 1.62 1.41 1.24 1.09 1.16 1.18 1.23 1.32 1.44 1.45 1.65 1.76 1.74 1.68 1.64 1.62 1.74 1.88 1.99 2.04 2.33 2.44 2.11 1.74 1.59 1.55 1.62 1.58 1.63 1.60 1.55 1.46 1.57 1.91 2.14 2.01 1.80 1.53
2.27 2.29 2.10 2.01 2.00 1.94 1.85 1.82 1.73 1.52 1.51 1.50 1.46 1.45 1.51 1.70 1.89 1.97 1.87 1.81 1.71 1.70 1.84 2.00 2.16 2.57 2.56 2.37 1.92 1.73 1.68 1.62 1.50 1.47 1.59 1.80 1.62 1.49 1.59 1.84 2.05 2.04 1.92
2.68 2.68 2.65 2.59 2.69 2.59 2.40 2.30 2.12 1.91 1.79 1.75 1.78 1.78 1.71 1.74 1.86 1.86 1.69 1.62 1.67 1.80 1.93 1.95 2.14 2.42 2.12 2.08 1.85 1.78 1.60 1.41 1.27 1.26 1.45 1.64 1.53 1.48 1.57 1.69 1.85 1.93 2.03
2.87 2.97 3.10 3.16 3.10 2.91 2.81 2.73 2.51 2.29 2.12 1.98 1.92 1.95 1.82 1.74 1.74 1.87 1.68 1.56 1.87 1.97 2.03 2.17 2.28 2.27 2.16 2.11 1.91 1.67 1.50 1.40 1.15 1.07 1.10 1.19 1.32 1.20 1.44 1.63 1.66 1.71 1.90
3.29 3.49 3.62 3.62 3.46 3.19 3.07 2.97 2.82 2.61 2.35 2.10 1.95 1.89 1.74 1.70 1.80 2.02 1.95 2.01 2.19 2.23 2.20 2.11 2.34 2.31 2.19 2.13 1.92 1.64 1.33 1.19 1.04 0.93 0.86 0.83 0.93 1.01 1.10 1.25 1.38 1.46 1.80
3.69 4.03 3.85 3.73 3.83 3.63 3.44 3.22 2.90 2.46 2.16 2.07 2.00 1.83 1.79 1.80 1.91 2.18 2.02 2.00 2.16 2.23 2.19 2.14 2.09 2.12 1.94 1.92 1.81 1.51 1.18 0.90 0.85 0.74 0.64 0.63 0.67 0.67 0.80 0.97 1.20 1.09 1.40
3.60 4.00 4.17 4.12 3.97 3.66 3.26 2.92 2.65 2.44 2.30 2.09 1.94 1.83 1.78 1.74 1.82 2.08 1.96 2.03 2.05 1.99 2.00 2.05 2.03 1.86 1.56 1.76 1.79 1.38 0.97 0.76 0.73 0.54 0.52 0.52 0.51 0.54 0.69 0.89 1.08 1.08 1.04
3.25 3.73 3.99 4.13 3.97 3.53 3.05 2.75 2.60 2.54 2.22 1.93 1.89 1.86 1.80 1.88 1.86 1.89 1.93 1.91 1.92 1.94 1.85 1.82 1.88 1.68 1.40 1.55 1.63 1.55 1.02 0.78 0.64 0.49 0.55 0.60 0.62 0.69 0.72 0.79 0.94 1.06 1.07
2.83 3.10 3.22 3.32 3.23 2.93 2.75 2.66 2.59 2.56 2.21 2.07 2.12 2.11 2.03 2.04 1.98 1.96 1.89 1.77 1.63 1.56 1.51 1.55 1.62 1.58 1.42 1.39 1.57 1.74 1.37 0.98 0.86 0.67 0.65 0.66 0.75 0.83 0.80 0.83 0.88 1.02 1.12
2.44 2.70 2.88 2.85 2.71 2.47 2.39 2.38 2.33 2.19 2.11 2.24 2.46 2.35 2.11 1.92 1.77 1.59 1.44 1.41 1.37 1.35 1.27 1.20 1.29 1.32 1.24 1.19 1.31 1.43 1.51 1.47 1.36 0.89 0.64 0.60 0.70 0.81 0.88 0.82 0.77 0.86 1.03
2.00 2.21 2.40 2.49 2.48 2.33 2.23 2.18 2.21 2.12 2.09 2.07 2.02 1.94 1.79 1.60 1.38 1.16 1.06 1.07 1.07 1.07 1.02 0.98 0.99 0.98 1.00 1.02 1.14 1.28 1.38 1.43 1.43 1.29 0.91 0.84 0.85 0.78 0.81 0.81 0.83 0.84 0.89
1.55 1.61 1.66 1.81 1.97 1.96 1.90 1.90 1.89 1.79 1.70 1.60 1.42 1.34 1.24 1.12 0.95 0.80 0.72 0.78 0.85 0.92 0.90 0.86 0.86 0.84 0.90 1.01 1.03 1.13 1.26 1.25 1.25 1.33 1.12 1.01 0.95 0.83 0.83 0.86 0.86 0.93 0.93

GEFSSE_prec_meanprecacc_150.txt.gz
Total_Precipitation_Accumulation
0.06 0.07 0.15 0.11 0.08 0.11 0.14 0.14 0.13 0.12 0.09 0.09 0.08 0.06 0.04 0.04 0.04 0.05 0.05 0.07 0.09 0.12 0.14 0.18 0.19 0.22 0.24 0.22 0.24 0.21 0.21 0.20 0.26 0.35 0.39 0.38 0.40 0.54 0.78 0.85 0.88 0.58 0.49
0.02 0.04 0.11 0.09 0.08 0.10 0.13 0.14 0.15 0.15 0.12 0.10 0.08 0.07 0.06 0.06 0.05 0.07 0.09 0.10 0.10 0.13 0.14 0.16 0.18 0.18 0.19 0.18 0.18 0.17 0.22 0.28 0.39 0.49 0.48 0.41 0.41 0.56 0.71 0.72 0.88 0.54 0.45
0.04 0.04 0.08 0.10 0.09 0.11 0.13 0.14 0.16 0.17 0.15 0.11 0.10 0.10 0.10 0.08 0.07 0.08 0.10 0.10 0.11 0.12 0.12 0.15 0.15 0.14 0.15 0.14 0.14 0.18 0.26 0.37 0.55 0.66 0.78 0.52 0.33 0.55 0.65 0.65 0.59 0.48 0.46
0.07 0.04 0.04 0.08 0.11 0.11 0.12 0.14 0.16 0.15 0.14 0.13 0.15 0.15 0.14 0.09 0.09 0.09 0.10 0.11 0.11 0.11 0.11 0.11 0.12 0.11 0.11 0.11 0.15 0.22 0.32 0.45 0.61 0.87 1.02 0.53 0.29 0.38 0.48 0.50 0.45 0.43 0.40
0.08 0.05 0.06 0.08 0.09 0.11 0.12 0.14 0.16 0.16 0.14 0.15 0.19 0.20 0.18 0.12 0.12 0.12 0.12 0.10 0.11 0.11 0.10 0.08 0.09 0.09 0.09 0.11 0.16 0.25 0.33 0.44 0.65 0.81 0.64 0.57 0.55 0.40 0.38 0.43 0.42 0.41 0.34
0.10 0.07 0.09 0.10 0.10 0.11 0.12 0.14 0.19 0.22 0.18 0.18 0.19 0.19 0.19 0.16 0.18 0.16 0.11 0.10 0.11 0.12 0.11 0.09 0.09 0.09 0.09 0.12 0.17 0.24 0.33 0.49 0.64 0.51 0.42 0.42 0.45 0.42 0.39 0.52 0.55 0.50 0.42
0.15 0.09 0.11 0.14 0.13 0.12 0.11 0.13 0.16 0.19 0.20 0.23 0.22 0.18 0.16 0.14 0.13 0.13 0.11 0.11 0.11 0.11 0.10 0.09 0.10 0.12 0.12 0.15 0.19 0.25 0.38 0.55 0.54 0.42 0.41 0.47 0.47 0.38 0.48 0.69 0.83 0.74 0.60
0.26 0.17 0.17 0.19 0.17 0.15 0.14 0.15 0.15 0.16 0.16 0.17 0.17 0.16 0.13 0.11 0.15 0.17 0.15 0.12 0.11 0.10 0.10 0.10 0.10 0.13 0.16 0.18 0.22 0.25 0.35 0.41 0.33 0.34 0.34 0.42 0.35 0.34 0.58 0.80 0.95 0.94 0.84
0.42 0.27 0.24 0.23 0.20 0.21 0.24 0.21 0.20 0.19 0.19 0.20 0.20 0.19 0.17 0.16 0.17 0.19 0.21 0.18 0.17 0.17 0.17 0.15 0.12 0.13 0.16 0.19 0.22 0.26 0.33 0.41 0.39 0.44 0.42 0.42 0.35 0.52 0.89 1.01 1.00 1.02 0.98
0.81 0.55 0.40 0.31 0.30 0.25 0.23 0.25 0.25 0.25 0.24 0.22 0.21 0.21 0.22 0.22 0.23 0.25 0.25 0.25 0.28 0.30 0.31 0.25 0.22 0.21 0.22 0.22 0.25 0.30 0.35 0.41 0.51 0.53 0.50 0.38 0.42 0.69 1.04 1.18 1.19 1.15 1.06
0.98 0.76 0.61 0.46 0.39 0.34 0.28 0.28 0.34 0.35 0.34 0.31 0.33 0.31 0.34 0.40 0.45 0.51 0.47 0.53 0.52 0.52 0.53 0.48 0.45 0.45 0.42 0.33 0.38 0.47 0.46 0.51 0.62 0.59 0.48 0.38 0.52 0.80 1.10 1.24 1.26 1.24 1.14
1.14 0.97 0.83 0.65 0.50 0.45 0.43 0.52 0.63 0.56 0.55 0.54 0.66 0.68 0.75 0.90 0.89 0.64 0.69 0.92 1.02 1.08 1.03 0.99 0.98 0.83 0.72 0.64 0.99 1.18 0.65 0.67 0.73 0.66 0.58 0.58 0.80 1.08 1.35 1.31 1.23 1.25 1.15
1.53 1.31 1.09 0.92 0.75 0.66 0.78 0.71 0.76 0.87 0.93 0.92 0.95 1.00 1.10 1.09 0.93 0.79 0.90 1.14 1.38 1.46 1.35 1.56 1.60 1.23 1.28 1.47 1.48 1.35 0.95 1.09 1.09 0.99 0.87 0.99 1.20 1.49 1.88 1.70 1.39 1.26 1.18
1.74 1.62 1.56 1.33 1.15 1.19 1.13 0.88 0.82 0.86 0.95 1.06 1.26 1.27 1.33 1.47 1.38 1.31 1.34 1.40 1.56 1.73 1.93 1.95 2.06 1.92 1.86 1.79 1.77 1.64 1.42 1.45 1.43 1.54 1.49 1.39 1.45 1.68 2.14 2.12 1.70 1.42 1.25
1.91 1.87 1.84 1.78 1.62 1.66 1.43 1.25 1.10 1.17 1.20 1.25 1.34 1.46 1.46 1.66 1.78 1.76 1.69 1.65 1.63 1.74 1.89 2.01 2.07 2.37 2.49 2.18 1.81 1.69 1.66 1.72 1.66 1.67 1.62 1.57 1.49 1.59 1.93 2.16 2.03 1.81 1.53
2.31 2.32 2.14 2.07 2.07 2.02 1.89 1.85 1.75 1.54 1.54 1.52 1.49 1.49 1.54 1.72 1.91 1.99 1.89 1.85 1.73 1.72 1.87 2.03 2.19 2.61 2.61 2.44 2.01 1.84 1.76 1.72 1.58 1.52 1.61 1.81 1.64 1.52 1.62 1.87 2.08 2.07 1.94
2.72 2.71 2.70 2.65 2.77 2.68 2.48 2.35 2.16 1.95 1.82 1.77 1.81 1.83 1.74 1.77 1.88 1.88 1.72 1.66 1.70 1.83 1.96 1.99 2.18 2.46 2.16 2.13 1.91 1.84 1.66 1.49 1.33 1.29 1.46 1.65 1.54 1.50 1.60 1.71 1.87 1.95 2.04
2.91 3.02 3.17 3.22 3.17 3.00 2.91 2.81 2.60 2.37 2.16 2.01 1.94 1.99 1.85 1.77 1.78 1.90 1.71 1.59 1.90 2.00 2.06 2.20 2.30 2.30 2.19 2.15 1.94 1.71 1.53 1.43 1.18 1.09 1.12 1.19 1.33 1.20 1.45 1.65 1.69 1.73 1.93
3.33 3.55 3.69 3.69 3.52 3.25 3.17 3.09 2.94 2.76 2.42 2.14 1.99 1.92 1.77 1.73 1.84 2.07 1.98 2.03 2.22 2.26 2.23 2.14 2.36 2.33 2.20 2.16 1.96 1.67 1.37 1.23 1.07 0.95 0.88 0.83 0.94 1.02 1.10 1.26 1.40 1.48 1.82
3.80 4.13 3.93 3.83 3.92 3.71 3.55 3.35 3.02 2.57 2.24 2.13 2.06 1.88 1.82 1.83 1.95 2.23 2.05 2.02 2.17 2.25 2.22 2.18 2.13 2.15 1.96 1.95 1.85 1.55 1.23 0.95 0.88 0.77 0.65 0.64 0.68 0.67 0.80 0.97 1.20 1.10 1.42
3.75 4.14 4.28 4.23 4.08 3.76 3.35 3.02 2.76 2.54 2.39 2.17 2.01 1.91 1.83 1.77 1.85 2.11 1.99 2.05 2.06 2.01 2.02 2.07 2.06 1.90 1.59 1.79 1.82 1.41 1.02 0.81 0.77 0.57 0.53 0.54 0.53 0.55 0.69 0.89 1.08 1.08 1.05
3.38 3.84 4.11 4.24 4.09 3.65 3.14 2.82 2.68 2.65 2.35 2.07 2.02 1.99 1.86 1.92 1.89 1.91 1.95 1.93 1.94 1.96 1.87 1.83 1.89 1.71 1.42 1.56 1.65 1.57 1.06 0.81 0.66 0.51 0.56 0.62 0.65 0.70 0.73 0.80 0.94 1.06 1.08
2.96 3.21 3.33 3.45 3.38 3.10 2.91 2.79 2.70 2.67 2.36 2.24 2.26 2.22 2.09 2.08 2.02 1.99 1.91 1.79 1.65 1.58 1.52 1.56 1.63 1.60 1.43 1.40 1.58 1.75 1.38 1.00 0.87 0.67 0.65 0.67 0.76 0.85 0.82 0.84 0.90 1.04 1.13
2.54 2.82 3.02 3.05 2.91 2.66 2.56 2.51 2.41 2.25 2.18 2.32 2.52 2.42 2.16 1.97 1.82 1.62 1.47 1.46 1.42 1.37 1.29 1.20 1.29 1.33 1.25 1.20 1.31 1.44 1.51 1.48 1.37 0.90 0.64 0.61 0.72 0.82 0.89 0.83 0.78 0.87 1.04
2.11 2.34 2.56 2.73 2.73 2.53 2.40 2.32 2.31 2.19 2.15 2.16 2.10 2.01 1.85 1.65 1.43 1.20 1.11 1.12 1.11 1.09 1.05 1.00 1.00 0.99 1.01 1.02 1.14 1.29 1.38 1.44 1.43 1.30 0.92 0.85 0.86 0.79 0.81 0.81 0.84 0.85 0.89
1.67 1.75 1.83 2.02 2.18 2.19 2.12 2.10 2.05 1.90 1.80 1.70 1.51 1.41 1.31 1.20 1.02 0.85 0.77 0.82 0.88 0.94 0.92 0.88 0.88 0.86 0.91 1.02 1.04 1.13 1.27 1.25 1.25 1.34 1.13 1.01 0.96 0.84 0.83 0.86 0.87 0.94 0.93

GEFSSE_prec_meanprecacc_156.txt.gz
Total_Precipitation_Accumulation
0.07 0.08 0.16 0.12 0.09 0.12 0.15 0.14 0.14 0.13 0.11 0.11 0.10 0.08 0.06 0.05 0.05 0.07 0.07 0.09 0.11 0.14 0.17 0.21 0.22 0.26 0.29 0.26 0.27 0.24 0.25 0.23 0.30 0.39 0.44 0.42 0.45 0.59 0.82 0.87 0.91 0.60 0.52
0.02 0.04 0.11 0.10 0.08 0.11 0.14 0.14 0.15 0.15 0.13 0.10 0.09 0.09 0.10 0.09 0.07 0.08 0.11 0.12 0.12 0.14 0.15 0.18 0.20 0.21 0.23 0.22 0.20 0.19 0.25 0.32 0.42 0.55 0.56 0.46 0.47 0.62 0.74 0.73 0.90 0.56 0.47
0.04 0.04 0.08 0.10 0.10 0.11 0.13 0.14 0.16 0.17 0.15 0.12 0.11 0.12 0.13 0.10 0.08 0.10 0.12 0.13 0.12 0.14 0.14 0.16 0.17 0.16 0.18 0.17 0.18 0.21 0.30 0.43 0.61 0.71 0.81 0.53 0.36 0.60 0.68 0.68 0.62 0.51 0.49
0.07 0.04 0.04 0.08 0.11 0.11 0.12 0.14 0.16 0.15 0.14 0.13 0.16 0.16 0.15 0.10 0.09 0.10 0.12 0.13 0.13 0.13 0.13 0.12 0.13 0.12 0.13 0.13 0.17 0.26 0.37 0.50 0.64 0.89 1.02 0.53 0.30 0.41 0.51 0.53 0.48 0.46 0.42
0.08 0.05 0.06 0.08 0.09 0.11 0.13 0.14 0.16 0.16 0.15 0.15 0.19 0.21 0.19 0.13 0.13 0.13 0.13 0.12 0.12 0.12 0.11 0.10 0.11 0.11 0.11 0.13 0.18 0.27 0.37 0.49 0.68 0.82 0.65 0.58 0.56 0.43 0.40 0.45 0.45 0.44 0.37
0.10 0.07 0.09 0.11 0.11 0.11 0.12 0.14 0.19 0.22 0.18 0.19 0.20 0.20 0.20 0.17 0.19 0.17 0.13 0.12 0.13 0.13 0.12 0.10 0.10 0.11 0.11 0.14 0.20 0.28 0.39 0.55 0.67 0.52 0.43 0.42 0.46 0.44 0.41 0.54 0.57 0.53 0.44
0.15 0.09 0.11 0.14 0.13 0.12 0.12 0.13 0.16 0.20 0.21 0.23 0.23 0.19 0.17 0.15 0.15 0.15 0.13 0.12 0.12 0.12 0.11 0.11 0.11 0.14 0.16 0.18 0.22 0.30 0.44 0.61 0.55 0.43 0.42 0.47 0.48 0.40 0.49 0.71 0.85 0.76 0.62
0.26 0.17 0.17 0.20 0.17 0.16 0.15 0.15 0.16 0.16 0.16 0.17 0.18 0.17 0.14 0.13 0.16 0.20 0.18 0.14 0.12 0.11 0.11 0.12 0.13 0.16 0.19 0.21 0.25 0.31 0.41 0.45 0.33 0.34 0.35 0.42 0.36 0.35 0.60 0.81 0.96 0.95 0.85
0.43 0.27 0.24 0.23 0.21 0.22 0.26 0.22 0.20 0.20 0.19 0.20 0.21 0.20 0.18 0.17 0.18 0.20 0.23 0.20 0.17 0.18 0.18 0.17 0.14 0.16 0.20 0.22 0.26 0.32 0.39 0.44 0.39 0.44 0.42 0.42 0.37 0.54 0.90 1.02 1.02 1.03 0.98
0.82 0.56 0.40 0.32 0.30 0.26 0.24 0.26 0.26 0.26 0.25 0.23 0.22 0.22 0.23 0.23 0.23 0.25 0.25 0.27 0.29 0.32 0.33 0.27 0.24 0.24 0.24 0.25 0.30 0.37 0.41 0.45 0.52 0.53 0.50 0.38 0.43 0.71 1.05 1.18 1.20 1.16 1.07
0.99 0.77 0.61 0.47 0.39 0.34 0.28 0.29 0.35 0.36 0.35 0.32 0.35 0.33 0.35 0.40 0.46 0.51 0.48 0.54 0.53 0.54 0.55 0.51 0.48 0.49 0.46 0.38 0.44 0.54 0.51 0.54 0.63 0.59 0.48 0.38 0.53 0.81 1.11 1.25 1.27 1.25 1.14
1.15 0.98 0.84 0.66 0.51 0.45 0.44 0.53 0.64 0.56 0.56 0.55 0.66 0.69 0.75 0.91 0.89 0.64 0.70 0.94 1.04 1.10 1.05 1.02 1.01 0.86 0.74 0.66 1.04 1.23 0.68 0.68 0.73 0.66 0.58 0.59 0.82 1.09 1.36 1.31 1.24 1.25 1.16
1.53 1.32 1.10 0.92 0.76 0.66 0.79 0.71 0.76 0.87 0.93 0.92 0.95 1.00 1.10 1.10 0.93 0.80 0.90 1.15 1.39 1.47 1.36 1.58 1.61 1.23 1.29 1.48 1.49 1.36 0.97 1.11 1.09 0.99 0.87 1.00 1.21 1.50 1.89 1.71 1.40 1.26 1.18
1.75 1.63 1.57 1.33 1.15 1.19 1.14 0.88 0.82 0.87 0.95 1.06 1.26 1.27 1.33 1.47 1.39 1.32 1.34 1.40 1.56 1.73 1.93 1.96 2.07 1.94 1.88 1.81 1.78 1.65 1.45 1.48 1.44 1.55 1.49 1.40 1.46 1.69 2.16 2.14 1.72 1.44 1.27
1.93 1.88 1.85 1.79 1.63 1.67 1.44 1.25 1.10 1.17 1.20 1.25 1.34 1.46 1.46 1.67 1.79 1.77 1.69 1.65 1.63 1.74 1.90 2.03 2.09 2.40 2.53 2.20 1.82 1.71 1.68 1.74 1.67 1.68 1.62 1.58 1.50 1.61 1.96 2.19 2.05 1.83 1.56
2.33 2.34 2.15 2.08 2.08 2.03 1.91 1.85 1.75 1.54 1.54 1.52 1.49 1.49 1.54 1.73 1.91 2.00 1.89 1.85 1.73 1.72 1.88 2.05 2.22 2.64 2.64 2.45 2.02 1.86 1.78 1.73 1.59 1.53 1.62 1.83 1.67 1.56 1.66 1.92 2.12 2.10 1.96
2.77 2.76 2.74 2.68 2.80 2.71 2.51 2.36 2.17 1.95 1.83 1.78 1.81 1.83 1.75 1.78 1.89 1.89 1.73 1.66 1.71 1.84 1.98 2.02 2.20 2.47 2.19 2.16 1.93 1.85 1.67 1.50 1.34 1.30 1.47 1.66 1.56 1.53 1.64 1.75 1.90 1.98 2.07
2.99 3.10 3.24 3.28 3.22 3.05 2.96 2.87 2.64 2.40 2.18 2.02 1.95 1.99 1.85 1.78 1.79 1.91 1.72 1.60 1.90 2.01 2.08 2.23 2.32 2.31 2.22 2.18 1.97 1.73 1.55 1.45 1.19 1.10 1.12 1.20 1.34 1.22 1.47 1.68 1.72 1.76 1.96
3.43 3.63 3.78 3.80 3.61 3.32 3.26 3.19 3.02 2.82 2.46 2.17 2.02 1.94 1.79 1.75 1.86 2.10 2.00 2.05 2.23 2.28 2.25 2.16 2.37 2.34 2.22 2.18 1.98 1.70 1.41 1.26 1.08 0.95 0.89 0.85 0.95 1.03 1.10 1.28 1.43 1.50 1.85
3.90 4.24 4.06 3.97 4.06 3.84 3.67 3.45 3.12 2.68 2.32 2.20 2.12 1.92 1.85 1.86 1.97 2.26 2.07 2.03 2.19 2.28 2.25 2.20 2.16 2.17 1.98 1.97 1.87 1.57 1.26 0.98 0.90 0.78 0.66 0.66 0.70 0.68 0.80 0.98 1.21 1.12 1.44
3.88 4.26 4.42 4.39 4.23 3.93 3.52 3.15 2.86 2.63 2.48 2.24 2.09 1.97 1.88 1.81 1.88 2.15 2.01 2.07 2.08 2.04 2.05 2.10 2.09 1.92 1.61 1.82 1.84 1.42 1.03 0.84 0.79 0.59 0.54 0.56 0.55 0.57 0.70 0.90 1.08 1.09 1.06
3.59 4.01 4.25 4.38 4.24 3.82 3.35 3.04 2.85 2.78 2.46 2.16 2.11 2.07 1.93 1.97 1.94 1.96 1.98 1.94 1.96 1.98 1.90 1.86 1.91 1.73 1.45 1.59 1.67 1.59 1.07 0.83 0.68 0.52 0.57 0.64 0.68 0.73 0.75 0.81 0.95 1.07 1.09
3.12 3.40 3.46 3.58 3.53 3.28 3.17 3.08 2.93 2.86 2.51 2.34 2.34 2.30 2.15 2.14 2.08 2.04 1.95 1.83 1.68 1.60 1.55 1.58 1.65 1.62 1.45 1.42 1.60 1.77 1.39 1.00 0.88 0.68 0.66 0.68 0.78 0.88 0.83 0.85 0.90 1.04 1.14
2.67 2.97 3.15 3.19 3.10 2.91 2.87 2.79 2.63 2.40 2.29 2.39 2.58 2.49 2.23 2.03 1.86 1.66 1.51 1.50 1.46 1.41 1.33 1.24 1.32 1.35 1.27 1.21 1.32 1.44 1.51 1.48 1.37 0.90 0.64 0.61 0.72 0.83 0.90 0.84 0.78 0.87 1.04
2.23 2.47 2.71 2.91 2.95 2.79 2.69 2.59 2.55 2.39 2.32 2.31 2.23 2.11 1.92 1.71 1.48 1.23 1.15 1.17 1.15 1.13 1.08 1.03 1.03 1.01 1.02 1.03 1.15 1.30 1.39 1.44 1.44 1.30 0.93 0.86 0.86 0.79 0.82 0.82 0.84 0.85 0.90
1.81 1.88 2.01 2.22 2.40 2.43 2.37 2.33 2.28 2.14 2.04 1.90 1.66 1.51 1.39 1.27 1.08 0.89 0.81 0.85 0.91 0.97 0.94 0.90 0.90 0.88 0.93 1.03 1.05 1.14 1.28 1.26 1.25 1.34 1.13 1.02 0.97 0.85 0.83 0.87 0.87 0.94 0.94

GEFSSE_prec_meanprecacc_162.txt.gz
Total_Precipitation_Accumulation
0.08 0.09 0.18 0.14 0.11 0.16 0.19 0.17 0.17 0.15 0.13 0.13 0.11 0.09 0.08 0.10 0.13 0.13 0.12 0.15 0.16 0.19 0.22 0.28 0.28 0.31 0.34 0.31 0.31 0.26 0.26 0.25 0.33 0.43 0.49 0.46 0.49 0.64 0.88 0.92 0.97 0.64 0.56
0.03 0.05 0.13 0.12 0.10 0.14 0.17 0.17 0.17 0.18 0.15 0.13 0.11 0.10 0.12 0.12 0.12 0.12 0.16 0.18 0.16 0.18 0.19 0.22 0.24 0.25 0.28 0.25 0.23 0.21 0.27 0.35 0.46 0.60 0.60 0.49 0.50 0.66 0.79 0.79 0.96 0.59 0.50
0.04 0.04 0.09 0.12 0.11 0.13 0.16 0.16 0.18 0.19 0.17 0.14 0.13 0.13 0.15 0.13 0.12 0.13 0.17 0.17 0.16 0.18 0.17 0.19 0.20 0.19 0.21 0.20 0.20 0.25 0.34 0.47 0.64 0.74 0.85 0.57 0.38 0.64 0.72 0.72 0.66 0.53 0.51
0.08 0.04 0.04 0.09 0.12 0.11 0.14 0.17 0.18 0.17 0.16 0.15 0.17 0.17 0.17 0.12 0.12 0.13 0.15 0.16 0.16 0.16 0.16 0.15 0.15 0.14 0.15 0.16 0.21 0.31 0.42 0.53 0.66 0.91 1.05 0.56 0.32 0.45 0.57 0.58 0.51 0.48 0.45
0.08 0.05 0.06 0.09 0.10 0.11 0.14 0.16 0.18 0.17 0.16 0.16 0.21 0.22 0.21 0.15 0.16 0.16 0.17 0.15 0.15 0.15 0.13 0.12 0.12 0.12 0.13 0.16 0.23 0.33 0.43 0.53 0.70 0.84 0.67 0.61 0.59 0.47 0.45 0.49 0.47 0.46 0.39
0.11 0.07 0.10 0.11 0.11 0.11 0.13 0.15 0.20 0.23 0.20 0.20 0.21 0.22 0.23 0.20 0.23 0.22 0.16 0.15 0.16 0.16 0.14 0.12 0.12 0.13 0.14 0.17 0.23 0.32 0.43 0.59 0.69 0.53 0.44 0.46 0.50 0.48 0.44 0.57 0.60 0.55 0.46
0.15 0.09 0.11 0.14 0.13 0.12 0.12 0.14 0.17 0.21 0.22 0.24 0.24 0.20 0.20 0.18 0.19 0.21 0.16 0.14 0.14 0.14 0.12 0.13 0.14 0.19 0.20 0.22 0.26 0.33 0.47 0.63 0.57 0.43 0.43 0.51 0.51 0.42 0.51 0.73 0.87 0.78 0.63
0.26 0.17 0.17 0.20 0.18 0.16 0.15 0.16 0.17 0.17 0.18 0.18 0.19 0.18 0.16 0.16 0.20 0.24 0.22 0.16 0.14 0.12 0.14 0.16 0.17 0.21 0.24 0.25 0.30 0.35 0.43 0.46 0.34 0.35 0.35 0.44 0.37 0.37 0.61 0.82 0.98 0.97 0.87
0.43 0.27 0.25 0.24 0.21 0.23 0.27 0.23 0.22 0.21 0.21 0.21 0.22 0.21 0.21 0.20 0.21 0.23 0.27 0.24 0.20 0.20 0.21 0.20 0.19 0.21 0.24 0.26 0.31 0.37 0.42 0.44 0.40 0.44 0.42 0.43 0.38 0.55 0.92 1.03 1.03 1.04 1.00
0.82 0.56 0.41 0.32 0.31 0.27 0.25 0.28 0.28 0.28 0.27 0.24 0.25 0.24 0.26 0.26 0.26 0.28 0.28 0.31 0.31 0.35 0.36 0.30 0.28 0.28 0.29 0.30 0.35 0.42 0.44 0.45 0.52 0.53 0.50 0.39 0.44 0.73 1.07 1.20 1.22 1.17 1.08
0.99 0.78 0.63 0.49 0.40 0.35 0.29 0.31 0.38 0.39 0.38 0.35 0.39 0.36 0.38 0.44 0.48 0.53 0.49 0.57 0.57 0.57 0.58 0.54 0.53 0.55 0.52 0.43 0.50 0.61 0.54 0.54 0.63 0.60 0.48 0.39 0.55 0.82 1.12 1.26 1.29 1.26 1.15
1.16 0.98 0.84 0.67 0.52 0.45 0.44 0.55 0.67 0.59 0.59 0.59 0.71 0.73 0.80 0.96 0.93 0.66 0.71 0.96 1.08 1.15 1.11 1.06 1.05 0.89 0.77 0.71 1.09 1.28 0.71 0.69 0.73 0.67 0.59 0.60 0.83 1.10 1.37 1.32 1.26 1.27 1.16
1.54 1.32 1.10 0.93 0.76 0.67 0.79 0.73 0.79 0.90 0.98 0.96 1.00 1.04 1.13 1.12 0.95 0.81 0.92 1.18 1.43 1.50 1.39 1.60 1.63 1.25 1.31 1.52 1.55 1.41 0.99 1.11 1.09 1.00 0.88 1.02 1.23 1.52 1.90 1.71 1.41 1.27 1.21
1.75 1.64 1.58 1.34 1.16 1.20 1.15 0.90 0.84 0.88 0.97 1.08 1.29 1.29 1.35 1.48 1.40 1.34 1.37 1.42 1.58 1.76 1.95 1.98 2.11 1.96 1.90 1.82 1.81 1.69 1.47 1.49 1.44 1.55 1.51 1.41 1.47 1.71 2.17 2.15 1.72 1.45 1.29
1.94 1.88 1.86 1.80 1.63 1.68 1.45 1.26 1.11 1.19 1.21 1.26 1.37 1.48 1.47 1.67 1.80 1.78 1.72 1.68 1.64 1.76 1.91 2.05 2.12 2.43 2.55 2.22 1.84 1.74 1.71 1.78 1.69 1.69 1.63 1.59 1.52 1.64 1.99 2.21 2.07 1.85 1.57
2.34 2.34 2.16 2.09 2.08 2.04 1.92 1.86 1.76 1.56 1.55 1.53 1.50 1.50 1.54 1.73 1.92 2.01 1.91 1.86 1.75 1.73 1.89 2.06 2.23 2.67 2.67 2.49 2.05 1.88 1.81 1.77 1.62 1.54 1.63 1.86 1.69 1.58 1.69 1.95 2.15 2.12 1.98
2.77 2.77 2.75 2.69 2.81 2.72 2.52 2.38 2.18 1.97 1.83 1.79 1.83 1.84 1.75 1.78 1.90 1.90 1.74 1.68 1.72 1.85 2.00 2.03 2.22 2.50 2.22 2.20 1.98 1.89 1.71 1.54 1.36 1.32 1.50 1.70 1.60 1.55 1.66 1.77 1.93 2.02 2.10
3.01 3.12 3.25 3.29 3.24 3.07 2.99 2.90 2.65 2.41 2.19 2.03 1.96 2.01 1.86 1.79 1.79 1.92 1.74 1.61 1.92 2.03 2.10 2.26 2.37 2.37 2.28 2.24 2.04 1.80 1.61 1.51 1.23 1.13 1.15 1.23 1.37 1.24 1.50 1.70 1.74 1.78 1.98
3.46 3.66 3.79 3.81 3.65 3.38 3.34 3.26 3.06 2.85 2.49 2.19 2.03 1.97 1.83 1.79 1.88 2.11 2.02 2.07 2.25 2.30 2.28 2.19 2.42 2.40 2.28 2.24 2.03 1.76 1.46 1.30 1.13 0.98 0.91 0.87 0.97 1.04 1.12 1.30 1.44 1.52 1.86
3.92 4.27 4.09 3.99 4.11 3.95 3.74 3.52 3.18 2.73 2.35 2.22 2.14 1.96 1.89 1.91 2.01 2.29 2.11 2.06 2.21 2.32 2.29 2.25 2.21 2.23 2.04 2.02 1.90 1.61 1.29 1.01 0.93 0.81 0.70 0.68 0.72 0.69 0.81 1.00 1.23 1.13 1.45
3.91 4.30 4.46 4.43 4.27 4.00 3.56 3.19 2.90 2.66 2.50 2.26 2.11 2.01 1.92 1.86 1.94 2.20 2.06 2.11 2.12 2.09 2.10 2.15 2.15 1.98 1.67 1.86 1.89 1.47 1.07 0.85 0.81 0.61 0.56 0.57 0.57 0.58 0.71 0.92 1.09 1.10 1.08
3.61 4.04 4.31 4.45 4.28 3.88 3.41 3.09 2.89 2.82 2.49 2.19 2.14 2.10 1.96 2.00 1.99 2.01 2.05 2.00 2.01 2.04 1.96 1.92 1.98 1.81 1.51 1.64 1.73 1.65 1.13 0.87 0.69 0.52 0.58 0.66 0.70 0.75 0.77 0.82 0.96 1.09 1.11
3.14 3.43 3.52 3.65 3.59 3.37 3.30 3.17 2.99 2.92 2.57 2.39 2.38 2.33 2.18 2.17 2.12 2.09 2.02 1.89 1.74 1.66 1.61 1.65 1.72 1.71 1.52 1.47 1.65 1.83 1.44 1.04 0.90 0.69 0.66 0.68 0.79 0.90 0.86 0.88 0.91 1.06 1.16
2.70 3.01 3.23 3.25 3.17 3.02 3.03 2.92 2.72 2.47 2.34 2.43 2.62 2.53 2.27 2.06 1.90 1.70 1.56 1.56 1.51 1.47 1.41 1.31 1.37 1.42 1.34 1.26 1.36 1.48 1.54 1.50 1.40 0.93 0.66 0.62 0.73 0.84 0.92 0.85 0.79 0.90 1.06
2.25 2.51 2.79 3.02 3.08 2.95 2.89 2.75 2.67 2.49 2.39 2.37 2.30 2.19 1.98 1.76 1.53 1.27 1.19 1.22 1.21 1.18 1.15 1.10 1.09 1.07 1.06 1.07 1.19 1.33 1.42 1.47 1.46 1.33 0.96 0.88 0.87 0.80 0.83 0.84 0.86 0.87 0.93
1.84 1.94 2.07 2.32 2.55 2.62 2.58 2.49 2.40 2.26 2.15 2.01 1.79 1.62 1.48 1.36 1.15 0.93 0.84 0.90 0.95 1.01 0.98 0.96 0.97 0.94 0.98 1.09 1.11 1.18 1.31 1.29 1.29 1.37 1.17 1.05 0.99 0.85 0.84 0.89 0.89 0.96 0.96

GEFSSE_prec_meanprecacc_168.txt.gz
Total_Precipitation_Accumulation
0.08 0.09 0.19 0.15 0.12 0.17 0.22 0.21 0.20 0.18 0.15 0.16 0.18 0.19 0.21 0.23 0.25 0.23 0.20 0.23 0.25 0.25 0.28 0.33 0.33 0.35 0.37 0.33 0.32 0.28 0.27 0.27 0.34 0.44 0.50 0.48 0.51 0.69 0.96 1.04 1.09 0.69 0.59
0.03 0.05 0.13 0.13 0.11 0.15 0.19 0.21 0.22 0.21 0.16 0.15 0.18 0.22 0.27 0.27 0.22 0.20 0.23 0.25 0.22 0.24 0.25 0.26 0.27 0.28 0.31 0.28 0.25 0.23 0.29 0.37 0.48 0.62 0.62 0.50 0.52 0.72 0.89 0.90 1.09 0.64 0.53
0.04 0.04 0.09 0.12 0.12 0.14 0.18 0.19 0.22 0.22 0.19 0.16 0.16 0.17 0.21 0.20 0.18 0.18 0.23 0.23 0.21 0.24 0.22 0.22 0.22 0.22 0.24 0.23 0.23 0.27 0.37 0.50 0.69 0.81 0.96 0.60 0.39 0.68 0.79 0.79 0.72 0.56 0.55
0.08 0.04 0.04 0.10 0.13 0.13 0.16 0.20 0.22 0.20 0.18 0.16 0.20 0.20 0.20 0.17 0.17 0.17 0.19 0.21 0.22 0.22 0.21 0.19 0.17 0.17 0.19 0.20 0.24 0.33 0.45 0.59 0.74 1.07 1.18 0.59 0.33 0.46 0.60 0.62 0.54 0.50 0.48
0.08 0.06 0.06 0.09 0.11 0.13 0.15 0.18 0.21 0.20 0.17 0.18 0.24 0.25 0.24 0.18 0.20 0.21 0.21 0.19 0.19 0.19 0.17 0.16 0.15 0.14 0.17 0.20 0.26 0.35 0.46 0.58 0.80 1.00 0.77 0.66 0.61 0.49 0.48 0.52 0.50 0.49 0.41
0.11 0.07 0.10 0.11 0.12 0.13 0.14 0.17 0.22 0.25 0.21 0.22 0.23 0.25 0.26 0.24 0.27 0.26 0.19 0.19 0.20 0.20 0.17 0.15 0.15 0.15 0.17 0.21 0.26 0.34 0.46 0.64 0.81 0.60 0.51 0.50 0.53 0.52 0.47 0.59 0.63 0.57 0.47
0.15 0.09 0.11 0.15 0.14 0.13 0.13 0.16 0.18 0.22 0.24 0.26 0.26 0.24 0.23 0.22 0.25 0.26 0.20 0.18 0.18 0.18 0.16 0.16 0.17 0.21 0.23 0.25 0.29 0.36 0.50 0.73 0.68 0.46 0.48 0.56 0.53 0.45 0.54 0.76 0.90 0.80 0.65
0.26 0.17 0.17 0.20 0.18 0.17 0.16 0.17 0.18 0.19 0.20 0.20 0.21 0.21 0.19 0.19 0.25 0.30 0.28 0.21 0.18 0.16 0.17 0.18 0.19 0.23 0.26 0.27 0.32 0.37 0.47 0.54 0.37 0.36 0.38 0.46 0.38 0.38 0.63 0.85 1.01 0.99 0.88
0.43 0.27 0.25 0.24 0.22 0.23 0.28 0.24 0.23 0.22 0.22 0.24 0.25 0.24 0.23 0.23 0.24 0.27 0.32 0.29 0.22 0.23 0.24 0.23 0.22 0.23 0.25 0.27 0.32 0.38 0.44 0.48 0.41 0.44 0.43 0.43 0.38 0.56 0.93 1.06 1.05 1.06 1.01
0.82 0.56 0.41 0.32 0.31 0.27 0.25 0.28 0.29 0.29 0.28 0.27 0.27 0.26 0.27 0.27 0.28 0.31 0.31 0.35 0.33 0.37 0.38 0.33 0.30 0.30 0.30 0.30 0.36 0.43 0.45 0.47 0.53 0.54 0.50 0.39 0.45 0.74 1.09 1.23 1.24 1.18 1.09
0.99 0.78 0.63 0.49 0.41 0.36 0.29 0.31 0.39 0.40 0.39 0.36 0.41 0.38 0.40 0.50 0.51 0.57 0.53 0.60 0.60 0.59 0.60 0.55 0.55 0.56 0.53 0.44 0.50 0.61 0.55 0.56 0.66 0.61 0.49 0.39 0.55 0.83 1.14 1.28 1.30 1.27 1.16
1.16 0.98 0.85 0.68 0.53 0.46 0.45 0.56 0.71 0.62 0.61 0.64 0.77 0.77 0.89 1.07 1.04 0.71 0.74 0.99 1.10 1.16 1.13 1.08 1.07 0.91 0.78 0.72 1.10 1.29 0.72 0.70 0.75 0.69 0.60 0.61 0.83 1.10 1.38 1.34 1.26 1.28 1.17
1.54 1.33 1.11 0.94 0.77 0.68 0.81 0.74 0.82 0.95 1.03 1.05 1.10 1.11 1.24 1.20 1.02 0.86 0.95 1.21 1.46 1.54 1.44 1.62 1.66 1.30 1.36 1.57 1.57 1.43 1.00 1.11 1.10 1.02 0.89 1.02 1.23 1.52 1.90 1.72 1.42 1.29 1.22
1.76 1.64 1.58 1.35 1.17 1.22 1.17 0.92 0.88 0.92 1.01 1.14 1.38 1.35 1.42 1.58 1.49 1.41 1.44 1.49 1.63 1.84 2.06 2.05 2.19 2.03 1.95 1.84 1.82 1.70 1.47 1.50 1.45 1.58 1.52 1.41 1.48 1.71 2.18 2.15 1.73 1.46 1.30
1.94 1.89 1.86 1.81 1.65 1.70 1.50 1.30 1.15 1.24 1.25 1.31 1.43 1.54 1.51 1.72 1.87 1.86 1.79 1.75 1.69 1.79 1.96 2.12 2.18 2.49 2.59 2.24 1.86 1.74 1.71 1.78 1.70 1.71 1.65 1.59 1.52 1.64 1.99 2.21 2.07 1.85 1.58
2.34 2.35 2.16 2.10 2.10 2.05 1.94 1.90 1.81 1.61 1.61 1.58 1.53 1.53 1.57 1.77 1.98 2.08 1.96 1.92 1.79 1.77 1.94 2.12 2.29 2.72 2.71 2.54 2.10 1.90 1.81 1.79 1.64 1.57 1.66 1.86 1.70 1.58 1.69 1.96 2.16 2.13 1.98
2.77 2.78 2.76 2.70 2.82 2.74 2.55 2.41 2.22 2.01 1.86 1.83 1.86 1.87 1.78 1.81 1.95 1.95 1.79 1.72 1.76 1.90 2.05 2.12 2.27 2.55 2.28 2.26 2.04 1.92 1.73 1.56 1.39 1.35 1.54 1.72 1.61 1.56 1.66 1.78 1.94 2.03 2.11
3.01 3.13 3.26 3.29 3.26 3.10 3.04 2.94 2.70 2.46 2.24 2.08 2.00 2.03 1.89 1.83 1.83 1.95 1.77 1.64 1.95 2.05 2.12 2.32 2.43 2.43 2.36 2.32 2.09 1.83 1.64 1.53 1.25 1.14 1.17 1.26 1.42 1.27 1.51 1.71 1.74 1.79 1.99
3.47 3.68 3.80 3.82 3.67 3.41 3.38 3.31 3.14 2.93 2.56 2.24 2.08 2.00 1.87 1.82 1.90 2.13 2.06 2.11 2.28 2.32 2.31 2.22 2.48 2.46 2.36 2.31 2.06 1.79 1.49 1.32 1.14 0.99 0.92 0.88 1.00 1.07 1.14 1.31 1.44 1.52 1.86
3.94 4.30 4.11 4.01 4.13 3.98 3.78 3.58 3.26 2.80 2.42 2.27 2.19 2.01 1.93 1.93 2.02 2.31 2.14 2.10 2.24 2.35 2.35 2.32 2.29 2.30 2.11 2.07 1.94 1.65 1.32 1.03 0.95 0.83 0.71 0.69 0.73 0.70 0.82 1.02 1.25 1.14 1.46
3.95 4.34 4.50 4.46 4.29 4.02 3.59 3.22 2.95 2.72 2.56 2.31 2.15 2.05 1.96 1.88 1.96 2.23 2.11 2.18 2.16 2.14 2.15 2.20 2.22 2.06 1.72 1.90 1.98 1.55 1.13 0.88 0.83 0.62 0.57 0.58 0.59 0.59 0.73 0.94 1.11 1.13 1.09
3.64 4.08 4.35 4.48 4.30 3.89 3.43 3.12 2.93 2.89 2.56 2.24 2.19 2.17 2.00 2.03 2.01 2.03 2.09 2.05 2.06 2.11 2.04 2.00 2.07 1.89 1.56 1.68 1.80 1.77 1.26 0.96 0.75 0.55 0.60 0.67 0.72 0.77 0.78 0.83 0.97 1.12 1.13
3.16 3.46 3.56 3.69 3.63 3.40 3.35 3.21 3.05 3.00 2.64 2.46 2.44 2.40 2.23 2.20 2.14 2.12 2.07 1.93 1.80 1.70 1.68 1.74 1.80 1.77 1.59 1.52 1.68 1.90 1.56 1.16 1.00 0.74 0.68 0.69 0.81 0.92 0.87 0.89 0.93 1.08 1.19
2.70 3.03 3.27 3.30 3.22 3.08 3.09 2.97 2.76 2.51 2.39 2.48 2.67 2.60 2.33 2.11 1.94 1.73 1.60 1.60 1.56 1.51 1.48 1.35 1.42 1.49 1.41 1.30 1.40 1.51 1.58 1.57 1.49 1.02 0.71 0.64 0.75 0.86 0.94 0.86 0.81 0.93 1.09
2.27 2.54 2.83 3.08 3.14 3.02 2.98 2.82 2.74 2.56 2.48 2.47 2.40 2.29 2.08 1.85 1.60 1.33 1.24 1.27 1.26 1.24 1.21 1.15 1.18 1.13 1.11 1.11 1.22 1.38 1.46 1.52 1.51 1.42 1.07 0.94 0.92 0.82 0.84 0.84 0.87 0.88 0.94
1.86 1.96 2.13 2.39 2.62 2.69 2.67 2.58 2.48 2.34 2.25 2.15 1.94 1.75 1.59 1.45 1.25 1.02 0.93 0.99 1.03 1.10 1.07 1.02 1.03 0.98 1.03 1.15 1.16 1.24 1.37 1.34 1.34 1.44 1.24 1.12 1.05 0.88 0.85 0.90 0.90 0.97 0.97